GFSCGP_850_rhum_078.txt.gz
RH
73 86 86 63 93 95 100 98 90 58 69 54 87 68 76 75 69 62 68 74 76 75 99 99 71 69 77 75 75 71 66 68 66 66 78 73 72 70 67 73 70 72 77 81
77 85 57 74 86 96 100 97 97 91 72 57 90 86 77 73 72 68 70 74 93 81 84 85 98 89 78 80 83 83 82 85 83 77 73 77 77 82 77 79 74 78 78 74
96 67 72 93 99 100 98 86 82 97 84 76 79 93 89 76 77 83 81 78 86 90 88 78 90 85 87 94 92 88 96 85 82 68 73 70 85 82 70 84 91 94 88 77
90 77 83 94 100 88 89 68 92 96 99 98 83 92 99 89 84 84 74 76 85 82 78 89 92 87 77 82 83 88 85 83 82 84 81 79 75 82 81 87 83 88 94 96
98 87 81 83 98 79 78 80 82 87 69 82 96 96 94 86 90 86 78 85 79 74 71 66 64 55 62 59 57 71 77 81 81 90 92 85 85 85 87 77 78 91 99 82
83 72 78 79 76 81 80 66 73 69 67 91 100 94 93 81 56 70 70 82 80 78 73 66 56 50 48 47 47 48 48 61 77 76 79 78 84 88 82 88 92 81 82 79
73 94 85 87 93 89 85 66 93 86 91 94 97 79 93 50 48 51 76 75 81 76 80 58 57 53 52 49 47 46 46 48 51 72 73 71 76 75 76 76 72 78 78 77
93 99 98 84 87 85 70 68 64 69 87 96 58 88 88 51 59 85 86 85 76 77 79 67 65 63 61 57 53 53 53 57 57 58 60 63 70 73 75 75 75 76 78 76
99 100 92 82 68 64 64 67 49 71 78 62 75 59 50 50 57 72 86 88 82 72 75 69 57 58 59 59 58 55 55 53 52 50 49 48 47 47 48 51 53 57 60 67
72 93 70 66 62 53 50 43 59 66 73 78 71 56 60 56 60 58 62 73 80 75 59 59 55 52 50 49 48 45 44 45 48 52 55 56 55 54 53 51 49 48 48 51
63 63 70 61 74 75 55 51 51 48 58 52 59 61 41 51 52 57 62 66 67 68 62 60 57 53 50 48 44 42 40 40 41 43 43 40 39 41 47 54 53 52 52 58
58 59 81 71 58 60 66 54 43 45 55 54 42 51 46 43 52 57 63 63 64 62 59 49 44 42 41 40 41 42 43 41 40 39 39 42 46 45 43 45 54 58 60 70
52 63 80 67 54 54 56 52 48 45 47 54 46 52 47 48 55 62 59 57 58 60 57 49 44 42 40 38 37 36 35 34 35 38 41 41 40 43 49 47 50 59 61 72
51 58 65 59 68 63 58 54 50 46 53 40 43 57 57 57 58 64 58 56 57 61 63 57 52 48 44 42 38 35 33 32 32 33 33 36 43 46 46 55 54 54 63 65
51 78 73 58 59 61 61 61 54 60 47 44 44 43 49 52 53 59 57 58 60 64 66 63 55 51 48 44 41 39 38 36 34 31 30 31 35 46 53 50 60 62 64 66
54 79 65 75 49 54 62 60 57 53 52 48 43 50 40 52 62 59 56 61 64 66 63 58 54 49 45 44 42 42 45 48 49 48 44 42 41 42 47 56 58 70 71 73
58 67 75 75 53 49 50 56 59 60 57 49 45 53 53 59 58 58 60 64 67 72 74 72 61 53 51 52 50 51 54 54 54 52 49 50 54 58 60 62 62 62 74 77
56 61 70 74 56 63 48 54 58 55 58 56 55 60 55 58 63 65 65 66 72 75 76 77 81 85 80 66 61 57 57 58 61 63 63 66 74 74 71 70 72 69 70 83
48 50 62 61 56 47 51 57 55 53 51 54 55 58 58 60 63 67 77 73 74 73 72 74 81 82 77 73 58 62 62 63 65 66 65 72 84 86 80 76 76 80 77 80
51 47 47 53 54 41 46 53 56 56 45 54 55 56 56 59 57 46 75 70 68 70 75 73 65 54 62 33 30 30 33 38 49 62 68 75 86 90 92 86 81 86 87 83
63 61 62 60 57 48 45 53 57 52 44 58 58 58 60 52 53 64 61 66 69 67 52 45 39 37 26 21 19 19 19 19 19 21 31 59 73 87 98 94 90 89 96 95
62 61 61 63 64 50 54 57 52 49 63 62 65 66 65 65 63 63 65 66 53 41 35 34 29 26 21 20 22 25 26 24 22 21 20 23 34 68 77 89 97 95 100 100
62 54 49 52 44 51 60 59 60 58 60 68 68 63 62 64 64 62 59 42 40 39 38 32 26 22 25 28 27 24 25 25 25 24 23 23 23 27 56 82 95 98 100 100
60 63 56 56 52 55 61 59 60 62 64 62 64 63 65 72 61 50 41 41 43 42 36 28 26 29 29 29 31 37 38 37 34 31 28 25 22 23 26 38 80 99 99 100
56 64 58 57 53 62 61 62 60 62 64 64 64 64 58 50 44 44 54 52 48 42 35 32 37 34 32 35 35 37 37 40 37 33 30 28 28 26 24 26 34 74 99 100
61 53 53 43 53 54 57 57 60 65 67 66 61 56 49 45 48 53 52 49 44 40 35 35 40 43 45 44 42 42 43 40 36 32 29 28 26 25 28 26 24 39 74 99

GFSCGP_850_rhum_081.txt.gz
RH
63 84 88 59 58 55 79 99 96 84 44 44 48 44 36 65 63 57 40 39 47 65 72 63 96 76 78 84 98 98 93 84 74 80 84 81 84 84 85 85 85 88 89 94
64 82 48 53 54 68 78 98 95 77 54 53 41 53 37 58 65 68 62 49 59 94 78 92 94 98 90 93 95 95 94 90 81 78 84 78 84 85 85 88 85 80 78 77
65 53 52 88 98 97 96 85 85 100 73 59 62 91 75 55 59 65 72 74 90 90 92 90 95 99 98 91 90 99 97 93 82 92 87 83 87 86 85 85 88 90 86 92
68 53 83 94 100 98 95 70 91 95 70 85 60 84 89 72 69 81 76 84 96 100 89 86 83 96 93 77 85 90 97 94 70 79 84 92 94 93 91 93 92 88 91 91
92 83 87 95 98 91 98 70 73 86 98 88 79 71 89 90 86 93 89 96 97 94 89 95 97 94 94 100 92 90 80 81 80 83 62 72 79 74 84 80 87 84 72 74
93 65 73 79 68 70 76 83 86 87 96 95 98 76 97 100 98 81 87 93 84 86 96 88 93 82 78 89 79 81 77 89 92 92 90 92 90 90 90 84 74 71 66 70
64 83 81 83 95 81 86 79 95 99 98 98 99 67 98 94 67 79 90 94 93 88 86 92 95 79 70 66 64 60 64 79 76 82 79 82 92 88 86 84 76 79 73 65
98 98 97 83 85 70 88 63 85 94 92 92 69 92 95 89 86 97 90 95 93 90 86 88 88 88 74 67 73 74 70 67 66 72 78 72 66 78 83 87 86 85 81 78
100 100 88 73 60 61 61 64 45 56 45 61 81 91 74 75 85 85 87 88 89 91 85 85 83 76 73 70 67 67 62 60 58 57 57 59 64 72 77 78 79 91 86 86
91 100 82 58 55 51 55 41 62 59 74 75 64 64 72 75 84 82 88 91 90 78 77 72 69 71 71 68 58 54 51 50 52 54 55 55 52 51 50 51 52 54 57 70
58 70 63 53 63 65 54 45 39 41 51 47 58 63 42 50 54 62 67 78 81 79 66 60 59 54 54 53 51 47 42 40 41 42 44 44 42 41 44 50 56 57 56 58
50 54 70 61 48 50 54 41 36 47 51 43 43 58 38 43 46 52 55 57 59 59 59 59 57 56 52 46 41 38 39 38 38 40 42 42 41 44 48 48 47 48 53 57
44 52 76 60 50 43 46 40 36 36 42 45 46 54 36 44 49 51 51 51 54 56 57 57 58 60 56 49 42 40 37 34 35 34 34 34 37 44 46 48 54 53 56 59
50 50 62 65 70 56 52 43 35 43 53 32 42 52 45 48 52 50 49 49 52 55 59 62 61 62 65 55 46 41 39 37 36 35 35 35 33 32 34 43 48 54 57 59
44 68 67 48 49 52 50 48 41 51 37 41 39 42 45 45 47 49 48 50 51 55 60 62 65 65 62 52 51 50 48 43 40 39 39 37 36 39 40 39 43 50 56 62
44 72 60 70 43 47 55 49 45 45 40 37 37 43 35 40 44 50 48 51 53 58 61 64 66 68 71 71 64 65 57 50 49 52 55 54 48 41 40 41 44 49 56 61
49 59 74 68 45 45 47 51 52 53 48 45 41 46 37 48 50 49 48 53 55 60 64 66 67 71 76 75 65 62 58 57 64 66 63 61 58 59 67 69 68 64 60 61
46 52 66 71 53 60 44 44 49 50 50 48 50 48 44 45 52 53 54 54 58 64 66 66 66 57 63 64 61 52 60 60 57 68 60 59 56 64 77 81 79 78 79 78
38 39 49 57 43 39 41 46 47 49 45 45 48 49 50 54 56 55 62 64 65 70 73 74 74 68 44 27 18 18 19 19 18 18 20 29 45 51 58 71 83 82 81 87
43 39 42 40 46 34 41 45 48 47 42 44 47 50 51 53 56 52 64 68 70 76 80 79 81 63 69 52 21 17 15 13 13 12 12 12 16 26 46 62 76 87 87 85
50 47 50 45 47 40 40 46 50 49 48 46 49 50 52 50 53 63 70 72 78 78 76 60 59 60 55 26 20 20 21 19 16 14 12 12 11 12 15 26 54 71 85 93
50 49 46 49 53 50 43 52 50 46 53 51 54 54 56 56 63 68 70 75 75 68 61 60 52 46 28 21 21 22 24 26 24 23 21 21 20 19 19 20 22 45 78 95
48 47 43 44 41 42 45 47 58 57 51 58 58 62 64 64 65 68 71 64 58 58 52 44 32 25 23 23 27 25 32 40 31 32 33 35 36 29 27 27 27 25 35 87
47 49 48 48 38 43 47 51 59 62 61 66 68 68 69 66 65 65 59 56 56 58 59 45 30 26 25 40 49 55 59 56 52 41 37 34 32 31 29 32 34 30 23 38
46 53 47 46 39 47 50 54 57 64 65 65 65 66 64 65 60 58 55 57 60 57 48 40 34 32 34 58 66 64 62 64 65 61 47 38 38 48 46 32 29 29 27 29
48 42 48 34 44 45 52 60 60 68 72 74 71 67 63 53 62 63 62 60 59 57 55 57 58 64 67 72 70 49 44 45 45 40 36 39 45 36 39 36 34 29 28 25

GFSCGP_850_rhum_084.txt.gz
RH
71 95 95 73 74 71 71 76 80 71 57 78 74 61 49 48 55 69 62 53 39 45 60 66 68 76 74 94 94 88 88 78 87 94 80 76 64 64 79 68 80 85 86 85
76 98 58 52 79 81 88 83 87 72 66 75 83 61 47 47 68 62 70 60 58 68 76 77 70 79 84 92 98 96 86 83 74 95 90 90 83 76 77 81 92 83 86 86
89 59 70 86 92 98 91 79 91 96 90 76 66 64 57 58 54 57 62 73 61 67 99 90 95 95 81 100 98 100 100 98 96 100 94 93 90 89 92 91 91 81 86 86
85 61 60 73 99 98 99 72 76 100 95 93 78 98 68 75 71 61 72 78 89 91 100 82 72 70 98 99 96 99 100 100 95 93 94 94 90 90 87 93 89 89 88 86
80 84 87 98 94 92 96 73 92 90 93 86 86 97 92 84 83 84 91 96 100 100 99 97 92 97 91 91 94 91 100 99 82 78 87 81 82 90 91 80 83 93 86 87
93 71 79 72 66 72 73 81 90 95 99 87 83 87 99 97 98 90 92 99 99 100 100 94 94 82 98 99 100 99 96 84 79 74 86 94 78 79 68 79 83 75 92 77
77 86 78 80 93 75 84 96 99 98 98 98 95 76 95 92 91 86 92 100 100 100 100 96 88 88 94 90 86 80 87 96 100 100 99 93 91 88 79 74 83 81 79 70
100 98 96 85 91 96 85 97 99 97 97 98 77 95 99 95 95 94 100 99 100 98 98 98 98 90 90 90 89 91 97 98 90 92 98 86 73 75 78 82 86 80 78 80
100 100 84 83 72 60 70 93 73 100 66 92 99 100 97 95 93 93 98 100 100 99 90 85 82 86 82 79 81 77 73 70 68 67 68 72 79 80 75 70 75 83 78 81
90 100 78 62 70 57 58 46 73 88 97 95 86 92 100 100 98 92 91 96 96 92 87 79 80 77 78 70 65 60 58 57 58 58 58 58 58 56 58 65 73 84 85 82
66 85 63 58 63 67 59 57 48 49 62 75 81 96 58 90 87 93 92 90 71 78 68 62 62 57 57 58 54 48 44 42 41 41 41 42 42 44 46 50 55 57 58 58
50 65 80 59 48 47 59 45 41 77 61 64 72 77 50 56 56 57 62 66 59 58 58 58 58 54 49 44 41 40 37 35 33 32 31 32 34 36 37 40 44 44 44 48
54 62 91 68 59 50 47 41 45 43 64 58 79 80 51 56 56 52 53 54 56 57 57 58 58 57 56 52 45 41 39 37 35 33 32 30 29 30 30 34 38 40 41 49
60 59 72 89 74 61 60 49 45 59 79 62 64 69 66 63 60 53 50 52 55 58 60 60 60 59 58 53 51 48 43 38 36 36 36 34 33 32 31 30 31 37 44 48
52 72 70 49 50 53 54 53 52 56 43 62 59 60 59 61 62 52 49 51 54 58 61 63 62 61 61 57 52 49 49 49 50 49 45 42 40 39 38 38 39 39 41 48
47 75 65 62 46 51 59 56 55 56 51 44 49 55 45 45 49 49 49 51 54 59 62 64 65 66 70 68 62 55 51 50 54 60 60 56 51 49 47 46 47 48 50 55
54 74 89 78 48 47 64 56 58 55 55 55 61 51 47 52 55 49 48 51 54 59 63 65 66 66 66 61 52 40 37 36 31 34 38 36 34 37 41 49 58 62 60 58
48 60 86 88 68 75 48 45 49 53 50 50 55 50 50 51 52 51 52 53 56 62 65 67 68 72 72 64 40 22 20 17 14 14 12 12 12 13 17 24 34 46 68 74
46 50 71 85 65 43 46 49 53 62 55 48 54 52 54 55 56 57 57 59 61 63 64 61 58 54 46 39 26 19 19 18 18 18 16 14 14 12 12 12 13 27 48 63
45 44 59 58 58 45 48 49 47 48 64 48 48 52 54 54 73 74 64 65 67 65 57 50 47 35 22 19 18 17 16 16 16 16 16 16 20 21 20 19 19 16 23 48
59 58 63 58 64 52 49 48 49 57 64 47 49 51 52 62 62 63 62 64 64 63 66 60 43 39 33 28 21 19 18 18 17 17 17 21 26 35 36 31 27 27 24 22
59 68 61 59 62 67 47 50 52 54 51 51 53 55 56 58 62 66 67 67 68 61 55 45 39 36 32 27 26 22 23 30 38 36 26 22 22 25 27 29 32 36 36 35
61 57 63 53 60 46 45 52 55 51 52 56 56 59 60 63 64 65 63 62 55 48 44 43 38 31 26 26 34 42 44 54 53 41 32 30 29 28 27 26 26 30 37 35
48 48 64 56 45 48 45 47 52 53 56 57 59 63 64 65 65 62 56 52 48 45 44 39 32 28 26 32 44 55 56 52 44 43 38 36 34 30 28 29 29 29 29 33
56 56 56 56 47 47 46 49 52 56 58 60 63 66 66 62 56 55 52 48 48 46 36 36 40 48 50 54 53 48 47 54 57 57 51 40 33 30 28 29 31 30 26 41
54 61 68 58 47 48 55 54 54 61 64 67 71 69 64 60 54 48 40 36 37 35 39 48 52 59 62 55 46 47 51 55 58 56 50 45 44 38 40 36 24 26 37 40

GFSCGP_850_rhum_087.txt.gz
RH
78 88 89 88 87 78 83 87 86 70 58 67 85 85 76 48 48 68 56 55 37 40 44 61 62 58 67 74 74 72 84 84 84 88 98 95 78 94 98 94 76 85 80 68
82 90 73 70 69 74 91 97 89 76 64 83 89 90 79 54 59 62 67 59 55 58 57 63 60 65 68 73 82 80 80 92 95 86 82 83 86 83 98 96 94 90 83 89
93 72 66 78 90 93 88 96 90 86 71 84 90 94 78 56 61 64 60 60 60 61 58 67 70 76 85 94 93 93 86 97 96 99 90 90 86 85 91 86 87 94 86 78
88 72 71 76 92 88 99 90 95 93 98 96 85 96 72 83 79 81 96 84 56 67 83 88 94 87 85 95 93 84 100 100 98 93 99 100 98 88 87 89 94 87 88 85
74 86 87 90 96 93 98 85 85 93 96 98 91 100 94 79 83 90 94 100 94 99 100 99 100 100 95 82 84 96 99 99 100 94 100 99 99 99 89 92 94 91 92 91
84 77 80 79 77 73 76 92 94 94 98 99 81 95 96 92 92 86 87 100 99 100 100 100 100 100 99 95 92 100 97 94 100 97 88 94 96 98 90 86 84 79 80 80
78 84 78 81 88 78 89 100 98 98 98 99 92 86 98 91 85 84 92 100 100 100 100 100 98 99 93 95 100 95 97 95 95 93 99 96 93 81 73 70 83 68 68 60
97 92 91 85 88 96 96 99 98 97 97 98 78 97 100 94 93 98 99 99 100 100 100 100 99 99 97 94 90 97 98 93 96 94 100 98 86 88 86 82 78 76 70 66
96 96 81 87 77 73 82 99 89 100 78 96 98 100 97 95 94 94 99 100 100 100 98 99 98 94 91 82 81 80 82 81 78 76 75 78 93 99 92 86 86 89 87 84
90 96 78 71 68 66 68 56 80 95 97 96 98 98 100 100 99 95 94 99 100 98 93 93 84 87 77 70 66 61 59 59 60 60 59 60 61 64 71 81 91 95 87 78
84 95 77 70 64 68 70 69 57 56 72 81 89 98 95 96 96 96 90 94 94 89 82 74 66 62 57 52 47 45 42 41 41 40 40 40 41 43 44 46 50 53 56 56
71 71 89 60 50 51 60 66 51 78 65 78 84 96 71 79 80 80 80 72 66 72 60 56 55 52 47 45 44 42 39 37 35 33 32 31 31 32 34 36 36 39 42 43
59 71 91 76 60 57 57 51 53 54 68 77 89 96 64 61 63 77 71 61 57 58 57 56 55 54 52 50 45 42 40 38 37 36 35 34 32 31 29 28 28 31 34 37
61 67 76 90 74 67 65 61 57 61 82 78 81 89 80 71 66 60 58 58 60 61 62 61 59 56 53 49 47 44 41 38 36 36 34 35 35 34 33 32 33 33 31 33
60 72 70 54 54 58 63 67 66 70 54 70 78 79 77 72 67 58 54 56 58 60 60 60 61 60 55 51 47 42 38 36 38 38 37 37 36 37 39 40 40 38 38 39
59 72 74 68 52 52 57 64 66 66 63 61 61 62 59 58 54 56 53 55 57 59 61 62 63 62 59 56 50 45 35 33 27 23 21 19 17 17 20 25 33 42 46 49
60 79 91 77 57 52 64 60 63 63 62 58 67 57 60 65 58 54 53 54 57 59 62 64 64 63 60 53 47 29 20 19 19 18 16 13 12 12 12 12 13 18 25 43
55 67 92 84 70 70 52 48 51 54 56 60 61 65 62 62 56 53 52 53 57 59 61 64 65 58 53 50 40 22 17 16 15 16 15 15 14 14 13 13 13 12 12 17
54 62 75 79 77 47 49 52 55 56 61 54 58 61 60 58 57 64 59 58 61 64 64 62 58 58 51 48 38 22 18 18 18 18 18 18 18 18 19 19 18 17 15 14
50 54 69 66 62 51 47 52 49 50 70 50 55 59 58 57 78 81 64 62 63 62 61 60 57 41 29 26 22 20 20 20 23 30 36 39 38 31 27 25 25 24 24 23
68 68 68 69 69 58 49 51 49 54 50 50 52 55 56 67 64 64 67 61 59 57 54 47 32 25 24 25 24 22 22 23 30 36 41 42 36 32 32 33 35 36 35 35
66 74 73 68 68 54 50 53 55 52 52 51 54 55 58 57 61 62 62 61 60 54 47 39 34 30 28 31 32 28 28 34 32 28 29 29 27 28 33 37 38 41 43 45
55 59 64 59 61 47 47 51 51 49 49 54 55 58 60 63 66 66 64 62 54 49 45 42 39 32 29 40 45 45 44 48 55 58 56 43 34 31 32 33 32 34 38 47
53 55 60 54 46 49 44 50 51 51 54 59 60 63 64 64 66 64 58 53 49 43 36 37 38 38 38 43 43 45 50 51 54 54 52 50 50 45 36 33 32 36 43 46
57 59 63 66 54 48 47 47 48 52 56 59 63 63 63 63 59 56 53 44 34 33 36 39 41 44 45 46 45 47 45 48 56 58 57 54 53 47 40 32 35 38 36 44
61 68 69 63 47 49 52 52 54 56 59 62 64 67 64 62 59 49 34 32 34 35 35 31 29 32 31 32 32 30 31 42 53 56 52 54 55 51 47 46 37 37 45 52

GFSCGP_850_rhum_090.txt.gz
RH
80 90 90 81 87 77 81 94 93 77 63 70 74 74 72 66 68 57 51 51 54 37 38 34 49 54 58 54 63 64 68 70 73 76 83 88 88 88 81 70 79 91 81 86
86 92 73 70 78 87 91 89 86 75 63 74 81 85 72 68 67 54 58 60 60 71 49 60 59 64 64 65 72 78 76 84 82 74 79 87 90 91 97 80 75 73 66 82
96 72 67 77 86 91 86 85 83 97 84 76 79 80 80 65 63 74 72 72 63 52 55 56 59 66 72 75 96 100 99 97 95 73 76 90 95 99 100 100 97 96 90 82
88 74 76 81 91 84 96 72 90 99 98 95 83 94 91 86 83 88 89 93 94 90 75 66 63 80 99 99 98 97 94 99 97 95 83 96 97 98 98 96 90 88 78 83
77 83 86 93 86 84 84 85 94 89 91 97 95 99 76 82 80 89 82 94 99 90 98 100 92 52 98 100 100 100 99 100 95 84 98 100 100 99 92 93 99 98 99 94
80 75 85 79 76 80 74 85 96 96 97 98 87 91 96 96 92 82 81 98 100 100 100 100 99 100 100 98 100 100 100 97 97 100 98 100 100 100 100 100 100 96 93 96
70 76 78 78 90 82 87 100 98 98 98 98 87 89 95 90 83 83 90 100 100 100 100 99 100 100 98 97 99 98 100 92 96 100 100 100 94 99 98 99 95 94 95 89
98 84 89 82 87 96 96 100 98 97 97 97 92 95 96 91 91 99 99 99 100 100 98 100 100 99 94 96 93 97 90 92 95 94 94 80 82 92 95 99 100 99 99 91
98 90 81 86 80 86 93 100 92 100 84 94 97 100 98 96 90 92 98 100 96 100 98 100 99 100 94 90 86 88 87 86 83 81 77 77 93 86 77 77 80 100 100 93
89 99 80 67 81 76 84 65 95 98 98 96 96 98 100 100 100 97 94 99 99 100 100 97 100 92 84 81 70 60 59 60 59 58 58 59 63 66 81 88 88 84 82 82
87 87 70 67 74 67 74 81 68 63 83 95 86 98 96 99 99 99 93 100 99 98 92 91 84 78 64 54 48 45 41 40 38 40 43 43 44 48 51 54 57 60 62 63
82 77 93 63 52 52 60 70 58 76 65 85 84 95 87 91 91 91 89 84 88 86 77 72 66 61 55 52 47 42 40 39 38 38 37 35 36 36 33 32 35 39 43 48
57 74 91 70 52 56 66 60 62 61 72 83 85 86 74 83 84 84 76 69 73 69 62 60 59 56 52 49 46 45 42 40 38 36 36 36 35 34 34 34 33 33 31 30
60 70 76 84 74 69 72 70 66 61 84 80 88 93 81 73 76 77 67 60 60 60 60 61 59 58 55 52 48 43 39 37 38 40 39 38 36 36 37 37 38 36 35 34
56 68 70 57 58 56 62 71 72 76 61 66 84 86 84 76 72 64 59 61 62 61 61 60 60 60 57 53 48 41 32 29 27 25 24 22 21 19 18 19 22 26 33 41
64 69 74 67 51 52 51 65 69 71 67 73 67 66 64 64 60 61 59 60 62 62 63 63 61 60 59 52 44 34 24 19 16 14 13 12 12 12 12 12 11 11 12 17
64 80 90 69 65 61 54 55 64 64 65 60 66 58 69 69 64 58 57 57 57 60 61 62 62 61 59 52 43 29 19 16 15 14 14 14 14 14 14 14 13 12 12 12
62 74 91 80 67 53 43 49 52 56 61 60 66 70 65 66 60 54 55 55 58 61 61 62 62 57 50 44 34 26 20 19 18 18 19 19 19 18 18 17 17 17 16 15
57 71 77 76 76 46 48 50 56 58 60 56 65 67 66 62 60 64 59 57 58 62 63 62 57 54 45 33 32 27 24 23 22 23 23 24 27 29 29 24 21 20 20 19
56 63 70 73 60 50 41 52 51 49 63 54 58 64 63 61 82 80 63 62 62 62 56 50 47 36 28 27 28 26 26 27 30 32 34 34 36 39 35 31 28 28 30 28
68 71 68 73 72 58 48 53 49 55 35 52 55 56 60 70 63 59 64 64 59 57 55 49 37 31 30 30 28 27 28 30 33 35 38 44 50 49 44 45 44 43 41 39
56 73 76 74 71 54 52 57 52 43 54 50 55 56 57 57 59 63 63 63 61 57 47 41 35 31 35 38 37 33 32 36 37 40 45 50 51 50 51 53 52 46 41 42
67 59 62 61 58 42 50 45 45 44 46 52 52 56 56 58 63 64 65 63 57 49 44 40 36 31 35 37 41 42 44 50 46 41 40 40 39 39 42 45 44 44 43 42
54 59 67 55 40 54 44 47 49 48 49 52 53 56 61 62 66 66 64 56 51 45 38 36 38 39 35 32 31 42 48 47 39 40 41 46 50 44 38 40 40 38 36 40
57 62 65 68 57 51 48 46 47 51 51 55 59 62 62 64 65 61 56 52 39 35 36 38 36 30 28 29 31 36 38 39 38 36 36 38 42 42 42 40 40 38 35 44
65 70 65 59 42 45 46 48 50 52 55 58 61 64 66 63 61 57 43 34 35 36 32 25 26 33 36 38 40 43 45 50 53 53 52 52 53 51 49 46 37 34 41 44

GFSCGP_850_rhum_093.txt.gz
RH
80 90 96 85 85 70 72 88 93 77 64 72 78 78 69 60 68 74 72 58 50 54 46 36 36 31 54 58 60 63 64 61 69 75 75 70 66 67 82 80 91 98 99 100
89 97 75 70 75 88 93 96 89 76 67 80 84 87 70 64 68 71 62 65 68 75 71 53 42 52 58 60 61 62 68 67 76 87 82 82 79 78 81 87 90 94 99 97
88 66 68 75 85 95 92 93 83 88 82 85 94 85 79 70 75 85 94 100 99 85 99 72 70 60 60 64 66 67 66 67 82 94 88 85 90 97 80 89 94 88 90 84
84 70 76 81 91 80 96 65 72 85 98 99 77 97 74 85 84 87 91 100 96 93 99 100 99 87 79 70 78 84 94 98 98 88 94 98 95 92 79 80 98 94 97 93
73 82 88 96 87 71 82 75 86 91 99 90 92 92 81 82 88 90 93 100 95 100 92 99 100 95 92 98 97 100 100 100 94 80 93 95 97 97 93 93 100 100 96 84
86 69 82 83 73 70 72 84 85 97 100 99 84 87 86 92 89 87 82 100 100 100 100 100 100 100 100 100 100 99 100 99 100 99 100 100 83 100 98 94 100 100 99 95
72 75 71 77 88 80 90 98 97 98 98 93 94 88 91 87 84 87 95 100 99 100 100 99 100 100 99 100 100 99 100 96 100 97 90 98 99 100 100 99 99 100 100 100
98 79 89 81 85 90 88 99 99 97 97 97 96 97 94 88 87 98 99 99 100 99 100 100 98 98 99 100 99 100 97 93 93 90 90 98 79 100 98 96 98 100 100 95
97 89 71 87 81 84 96 100 94 100 87 95 97 100 97 95 88 92 96 100 100 99 99 100 99 94 97 96 91 90 88 86 79 79 84 87 99 93 92 96 91 99 100 99
87 98 74 66 83 81 91 89 99 99 97 96 94 98 100 100 100 99 97 99 99 100 99 100 100 95 88 74 69 67 64 61 61 56 57 60 61 67 87 98 99 98 98 96
87 89 68 67 80 69 88 94 95 80 97 97 90 93 91 100 100 100 97 100 98 98 100 99 91 74 69 63 58 53 49 46 44 40 39 38 37 39 43 46 50 57 62 66
84 82 95 67 52 54 60 68 70 82 72 84 78 91 86 94 95 93 98 100 100 95 91 79 75 71 61 56 50 48 47 47 49 49 44 40 38 38 37 36 35 35 35 37
63 77 92 58 50 56 67 64 66 68 74 82 83 77 81 85 87 85 89 91 85 73 71 68 64 60 57 54 49 43 41 40 40 39 39 40 38 37 36 36 36 37 36 36
59 73 76 83 74 69 72 70 71 64 85 81 86 90 80 74 85 82 71 64 65 65 64 62 61 60 57 50 44 36 33 31 27 26 24 20 18 17 17 18 19 21 27 33
58 66 73 60 62 58 58 71 76 82 72 66 75 78 77 77 76 75 65 64 64 63 63 62 60 58 56 51 44 32 25 20 18 17 16 14 14 14 13 13 13 13 12 12
66 66 72 71 57 62 58 55 67 71 67 71 69 66 65 66 62 63 60 61 62 61 61 61 62 62 58 51 44 33 22 18 16 16 16 17 16 16 16 16 16 16 16 16
67 79 89 69 68 62 52 47 63 64 65 61 65 57 72 72 69 62 59 59 57 59 61 62 64 63 56 48 39 29 21 18 17 17 18 18 19 20 20 22 22 20 19 18
65 77 90 83 63 61 36 51 54 60 63 62 65 68 69 67 62 58 55 55 57 60 62 64 65 58 50 40 29 26 23 20 20 20 20 20 21 23 25 26 26 25 23 22
59 74 78 78 77 46 44 50 61 62 57 61 66 68 70 66 63 63 59 58 60 61 63 64 58 53 40 30 28 27 28 28 27 26 27 30 33 32 32 31 29 28 27 26
62 68 71 75 61 42 36 53 53 48 48 59 63 70 69 64 80 80 60 61 62 65 64 58 53 38 31 30 30 30 32 31 30 30 32 35 40 43 40 38 35 34 33 31
63 72 73 76 79 59 45 54 48 40 29 54 57 58 64 73 66 58 60 63 64 60 57 51 42 37 34 33 33 34 35 36 37 36 35 34 37 41 41 44 42 40 38 35
51 69 77 77 74 53 54 58 48 38 51 49 54 56 56 55 56 59 64 65 62 61 53 46 42 38 36 37 35 35 37 37 36 32 29 29 31 33 37 42 42 44 44 39
68 59 56 64 57 40 51 42 41 43 43 48 50 53 55 56 59 62 63 64 64 57 50 45 38 35 38 39 38 32 28 28 24 22 21 22 23 23 25 29 31 34 38 39
57 60 70 57 39 56 44 44 46 46 44 44 47 50 54 56 60 64 67 66 58 52 47 38 35 34 32 25 23 28 32 36 37 38 39 41 41 39 38 40 42 41 39 36
55 65 68 72 60 50 42 44 42 48 50 51 53 56 60 63 65 66 64 58 54 40 34 34 33 25 21 26 30 34 37 39 37 38 41 42 44 46 45 45 46 46 45 46
68 69 64 59 41 43 36 37 44 48 49 51 54 57 61 63 64 61 58 50 33 32 34 28 24 29 33 32 29 28 32 35 37 39 39 40 44 46 49 49 46 47 47 53

GFSCGP_850_rhum_096.txt.gz
RH
82 86 89 76 79 68 77 86 92 76 64 72 80 79 71 64 66 73 68 67 67 62 54 60 52 34 29 27 33 44 52 63 64 69 71 75 69 69 73 79 80 80 82 78
85 90 71 70 76 83 89 96 84 75 69 71 84 85 76 70 74 80 97 98 98 89 82 97 53 40 34 43 61 56 59 62 70 74 73 83 82 82 80 78 75 78 82 81
81 62 69 72 83 91 84 90 88 85 74 77 91 83 69 73 80 82 95 96 94 94 95 94 99 100 58 53 54 59 67 71 72 76 84 89 88 82 79 77 79 76 83 76
82 71 72 83 87 80 91 66 71 81 97 97 71 95 71 79 81 82 95 99 98 93 97 93 99 99 95 65 72 71 72 67 62 71 80 94 89 94 96 76 74 86 91 86
73 78 87 87 78 71 75 66 75 81 95 99 93 95 79 83 84 78 85 96 100 100 100 100 98 97 97 97 97 99 100 98 93 83 90 90 98 98 87 72 95 91 92 86
83 71 81 73 72 70 66 82 85 87 100 98 84 91 86 91 89 86 84 99 99 100 100 100 100 100 100 99 96 99 94 97 100 100 99 100 99 94 94 100 100 99 99 99
74 82 71 73 91 79 89 100 95 94 99 93 92 95 83 83 86 88 93 100 99 100 99 100 100 100 100 99 99 100 99 100 99 100 99 100 96 89 92 90 95 95 99 100
96 84 84 81 86 91 97 98 98 96 97 94 98 98 96 88 89 97 100 99 100 99 100 100 100 100 99 99 100 99 100 98 95 94 99 100 100 95 99 99 92 89 97 88
95 91 68 87 76 83 96 100 94 100 100 97 94 97 97 93 94 90 95 99 100 100 100 99 100 100 99 99 98 96 91 88 77 73 78 76 94 95 94 96 98 90 95 99
89 99 72 76 84 82 92 88 100 100 97 96 95 96 100 100 100 100 99 99 100 100 99 100 94 86 82 78 75 74 64 55 48 42 40 40 44 53 62 76 86 89 93 97
86 90 72 71 87 72 96 91 96 95 99 97 95 96 97 98 98 99 98 99 99 99 100 94 86 77 72 64 55 51 50 48 46 46 44 42 40 39 39 38 39 40 44 49
80 88 98 67 55 56 60 67 75 87 74 85 81 91 90 94 95 98 99 98 98 97 92 87 80 70 63 58 52 50 48 44 43 45 41 39 40 40 39 40 42 42 40 39
74 79 93 56 49 56 67 64 68 74 78 80 87 79 79 85 87 96 98 95 87 76 71 71 70 67 62 52 41 39 34 32 32 28 22 18 16 15 15 16 16 18 21 28
59 75 77 80 68 70 71 66 74 70 87 78 81 82 75 75 86 81 76 71 70 67 68 67 67 67 61 51 38 29 24 21 20 18 16 14 14 14 14 14 14 13 12 12
61 69 76 69 72 66 62 60 74 79 71 63 70 76 72 76 83 83 70 65 66 65 65 64 65 66 61 52 43 29 23 21 19 19 18 19 20 20 20 20 19 18 18 17
68 69 75 83 57 63 66 59 65 69 69 71 75 68 64 66 63 67 64 63 64 63 63 64 64 64 57 49 41 32 23 20 18 18 19 20 21 21 21 22 22 22 22 22
68 78 89 75 61 65 55 49 61 64 68 61 67 56 73 74 72 62 58 59 59 60 63 65 66 65 56 49 38 30 24 22 21 22 23 25 25 26 27 27 28 27 26 26
67 77 90 86 60 51 34 51 54 62 65 66 67 68 71 67 60 57 55 54 56 59 63 65 67 60 52 40 30 28 28 26 26 27 27 28 29 30 31 31 31 30 29 27
64 74 77 78 81 45 41 49 59 60 52 67 66 69 70 68 65 61 57 56 58 60 64 66 63 54 42 34 33 34 34 34 32 32 33 33 34 34 34 31 28 27 25 24
65 70 72 75 61 37 28 52 54 43 45 52 63 71 75 69 82 81 59 59 61 64 66 63 56 45 40 39 37 36 34 32 30 30 30 30 28 26 24 23 22 23 26 26
62 72 73 78 78 63 43 54 50 36 26 53 58 61 68 77 66 60 62 66 67 66 61 56 50 45 42 38 34 32 32 34 33 28 25 24 22 22 25 28 28 30 28 26
52 64 76 79 76 55 53 57 45 36 47 48 52 54 57 57 58 60 64 66 65 63 60 54 49 46 40 35 34 35 32 24 22 23 24 26 27 29 31 34 34 34 36 36
68 56 48 63 58 38 49 41 39 42 42 44 47 50 54 56 56 56 59 61 62 61 58 53 50 40 35 35 33 23 20 25 25 24 26 27 26 29 34 40 42 44 44 46
58 61 68 58 42 58 41 40 42 43 42 40 41 44 49 51 54 57 61 63 64 62 55 51 38 32 34 27 23 28 29 28 25 22 22 25 27 28 29 33 38 42 43 46
52 66 68 76 60 50 41 39 37 42 46 47 48 49 51 55 58 61 64 66 63 57 50 34 32 32 22 21 24 25 24 24 25 28 34 37 39 41 43 42 46 49 46 51
69 66 64 56 39 39 34 34 36 42 43 47 49 51 55 59 62 63 64 61 58 44 32 34 30 21 22 24 20 21 26 34 39 43 46 47 50 52 54 54 46 44 47 45

GFSCGP_850_rhum_099.txt.gz
RH
83 75 65 65 70 62 76 87 96 78 62 73 77 76 68 64 74 78 86 93 97 98 88 77 75 61 49 43 33 23 29 35 51 62 66 66 57 59 64 68 70 70 71 72
76 75 68 68 77 80 88 92 88 73 67 68 74 77 68 70 80 91 87 89 87 89 83 85 98 91 57 49 35 34 41 52 58 65 65 70 69 69 73 75 76 74 73 77
70 73 71 71 85 86 88 87 85 87 71 74 84 84 65 70 80 75 94 97 99 90 92 89 94 92 79 97 98 57 60 61 64 65 64 66 77 78 83 79 74 74 74 76
77 71 74 82 89 80 88 66 69 80 91 94 82 91 70 73 78 72 87 89 99 99 96 99 95 96 94 100 72 57 60 61 62 63 67 72 81 99 96 88 86 73 70 71
73 79 90 88 80 72 79 60 71 76 99 100 96 97 71 76 77 78 84 94 99 99 97 100 100 99 99 99 85 72 74 79 83 76 86 95 99 98 92 84 84 98 91 88
75 72 80 74 71 72 64 80 85 91 100 97 84 87 75 84 88 80 84 99 99 100 99 100 100 100 97 98 92 96 90 94 94 99 96 100 100 99 95 80 82 83 88 86
76 86 73 72 87 79 83 99 96 89 92 91 77 90 74 79 73 84 93 99 99 100 100 100 100 100 100 100 100 100 100 100 100 100 100 100 100 100 100 96 90 84 84 100
96 77 80 82 84 94 98 99 91 99 95 90 94 91 89 85 91 96 99 100 99 99 100 100 100 100 100 100 99 100 99 94 95 93 98 99 100 100 100 100 100 100 98 94
90 89 72 87 73 80 96 97 88 98 85 96 84 95 96 93 96 98 99 100 99 99 100 99 99 100 99 95 95 98 92 80 75 73 70 62 71 76 78 91 94 99 98 99
87 97 70 79 81 80 83 82 97 100 98 92 86 93 98 99 100 100 98 99 100 100 100 100 98 95 91 86 88 87 79 64 55 52 50 49 47 42 38 40 40 50 64 84
84 88 73 75 96 82 94 93 90 95 99 94 92 88 96 100 99 99 97 99 100 100 99 96 87 81 79 75 67 66 58 54 44 41 39 38 38 39 39 37 38 39 41 40
80 83 98 73 59 57 63 68 74 87 76 83 82 76 88 93 93 99 99 100 98 98 95 86 79 73 59 52 49 42 38 33 27 22 19 17 16 16 15 14 14 15 17 22
82 84 91 55 49 55 64 64 66 75 78 80 80 70 80 84 91 99 100 98 84 77 70 71 71 66 54 40 32 27 25 26 23 18 16 15 15 14 14 15 15 14 14 14
65 78 76 76 59 70 75 63 70 78 83 74 77 79 77 85 87 88 92 84 79 68 67 68 70 67 58 47 35 27 24 21 20 20 20 20 20 21 21 20 20 20 19 19
66 76 80 75 74 71 73 65 62 78 70 64 59 84 75 80 86 82 75 66 65 65 65 65 66 66 60 50 41 31 24 21 20 20 20 21 22 23 24 24 24 25 25 24
71 76 77 86 66 67 71 66 64 73 73 77 77 76 62 66 71 78 76 65 61 62 63 65 66 66 61 50 42 34 28 24 23 24 24 26 26 26 26 27 27 27 26 26
71 79 87 76 61 64 63 61 63 66 68 63 74 56 74 75 72 65 63 60 57 58 60 63 64 65 58 50 39 33 30 29 29 28 28 28 28 28 28 28 28 26 23 21
70 75 89 89 62 44 32 51 53 60 61 70 67 65 70 67 59 56 55 54 54 57 59 62 64 66 56 47 36 33 32 32 32 32 32 34 34 33 29 25 22 20 19 20
69 75 78 79 78 41 35 45 60 61 42 64 71 67 68 69 68 62 57 57 55 57 60 64 67 63 53 41 37 36 37 38 38 38 36 30 23 21 21 20 20 22 22 21
72 72 73 79 61 36 21 48 54 44 43 44 64 71 75 71 80 73 58 59 58 59 62 65 66 56 48 43 43 41 38 36 35 29 20 20 22 22 21 22 24 27 30 30
62 74 80 79 78 60 42 55 50 37 20 48 59 62 71 77 64 58 56 59 62 64 66 63 58 52 49 47 43 38 35 31 21 17 19 20 22 24 27 27 30 30 32 33
51 69 80 82 80 54 51 59 44 34 39 46 52 54 61 59 60 58 60 64 66 66 63 61 56 52 50 44 38 34 26 20 22 21 19 20 21 24 29 31 30 30 36 40
63 51 45 58 51 36 48 39 35 36 36 38 39 42 49 55 58 58 59 64 67 66 66 60 55 52 41 35 32 21 20 21 17 16 19 24 29 32 34 35 33 35 37 46
60 61 66 55 41 56 38 36 40 42 40 39 39 41 46 50 54 57 62 65 67 68 64 58 55 40 33 30 22 24 22 19 21 26 30 32 34 36 37 39 42 47 47 48
50 66 68 74 59 44 34 36 34 35 43 47 46 44 45 48 50 54 59 64 66 65 60 56 38 34 29 24 27 24 23 27 32 35 38 38 39 40 43 46 49 50 46 56
67 66 60 54 38 37 33 34 38 34 37 41 48 48 49 51 54 58 62 66 66 60 53 35 35 28 24 26 22 22 29 34 39 42 42 42 45 48 54 56 51 47 59 85

GFSCGP_850_rhum_102.txt.gz
RH
71 48 54 52 49 50 62 63 71 55 48 61 56 55 46 44 58 62 75 79 78 77 80 85 94 95 99 69 56 46 29 31 30 31 38 48 58 61 60 60 64 66 69 68
57 61 53 54 58 61 65 66 67 53 52 58 54 56 47 49 63 67 70 82 88 88 81 93 89 78 94 100 98 76 60 35 45 46 65 71 69 68 66 65 60 64 67 71
56 65 59 58 73 68 60 59 63 78 60 54 60 48 51 52 66 61 67 83 90 99 100 100 90 96 96 93 92 84 95 99 96 94 78 73 63 57 57 60 61 60 68 77
58 59 62 64 82 64 71 53 58 69 74 77 61 76 50 51 54 56 62 75 86 96 100 100 96 98 99 97 96 100 100 99 82 58 66 70 69 91 89 73 85 88 88 98
80 71 75 73 70 59 61 52 60 67 78 88 66 95 50 52 54 55 60 75 90 98 98 99 99 98 100 100 98 100 100 70 65 67 65 69 85 87 97 96 86 93 84 88
60 65 64 57 56 56 54 65 74 68 80 93 62 75 53 59 65 64 69 90 99 100 98 100 100 100 100 100 98 100 97 81 94 86 78 90 94 100 100 96 96 96 91 98
67 70 63 64 69 67 70 85 84 83 90 79 62 75 55 65 83 87 91 97 99 98 99 99 99 99 100 100 100 98 98 98 100 100 98 100 99 99 96 100 100 99 88 84
90 93 66 64 65 76 84 98 93 88 74 70 67 83 68 90 93 93 100 100 99 98 100 97 100 100 100 98 96 88 85 88 84 82 82 92 90 98 100 100 99 100 99 96
82 97 62 68 63 76 96 99 84 98 74 89 63 77 88 89 95 98 99 100 100 99 99 99 98 99 100 100 96 93 84 79 73 76 80 82 72 56 54 55 55 68 81 98
72 91 61 73 71 67 71 68 91 96 90 74 60 74 89 99 100 97 98 99 99 99 99 100 98 96 95 96 94 92 85 64 69 68 52 54 67 72 59 45 45 41 41 42
68 65 64 65 79 66 82 76 73 74 78 75 65 60 88 98 98 98 98 100 99 99 98 98 96 87 78 81 73 69 61 50 36 32 27 24 27 34 29 23 18 18 19 21
68 70 84 60 51 49 54 55 52 68 70 61 61 55 71 86 89 98 97 100 99 98 88 86 80 72 53 50 40 37 33 24 20 18 18 17 16 15 15 16 16 16 16 16
66 71 75 54 51 52 56 54 52 58 62 67 63 47 66 79 82 94 95 98 90 82 83 73 74 70 58 38 31 26 23 22 21 20 20 20 20 20 20 20 20 20 21 21
65 64 62 48 44 51 57 53 55 60 69 50 48 46 64 78 77 82 83 75 72 72 68 67 72 70 57 45 35 27 24 22 22 21 21 21 22 23 24 24 25 25 25 25
59 72 65 54 49 54 56 53 50 67 54 54 39 52 48 59 65 65 69 72 65 62 64 66 69 71 63 53 44 34 29 26 25 25 26 27 28 28 28 27 26 25 24 23
60 73 63 78 51 56 60 50 48 47 50 58 51 53 38 47 57 60 66 66 60 59 62 66 68 66 66 55 47 38 33 30 30 30 30 30 29 28 27 27 25 19 15 14
58 63 69 61 46 44 46 38 43 44 47 45 52 36 45 53 59 61 62 66 60 56 60 65 64 64 65 57 48 38 35 34 34 33 32 30 31 30 24 19 18 18 19 20
56 60 70 75 48 46 28 42 44 42 42 45 46 44 48 47 53 57 58 55 54 56 57 58 61 64 67 58 46 38 37 37 36 33 32 30 20 16 17 19 20 21 21 20
55 54 60 63 48 27 29 35 43 42 27 32 42 42 51 60 63 55 52 50 54 56 59 63 64 67 67 55 43 41 41 38 35 33 26 20 24 26 25 24 22 22 20 19
59 57 56 57 50 22 17 39 47 43 32 32 44 42 53 63 57 37 53 54 56 57 58 60 65 67 61 50 46 45 40 36 32 23 22 23 23 21 20 20 23 25 25 22
57 58 64 57 51 33 27 47 48 33 15 33 49 48 58 57 45 56 54 57 60 61 62 65 68 62 54 50 48 40 35 29 23 22 21 21 22 24 28 30 31 31 31 32
36 44 50 54 58 52 43 56 37 26 29 43 54 56 60 60 55 56 54 55 60 62 65 66 62 58 53 50 41 36 28 24 22 18 18 23 30 34 36 37 37 37 39 45
44 32 28 37 29 32 47 39 39 32 39 39 43 42 45 52 55 56 55 58 64 68 66 64 61 56 53 40 35 26 23 20 17 19 27 31 33 36 38 40 44 51 57 74
42 46 41 40 26 37 35 31 33 36 38 38 38 39 42 44 48 53 58 62 66 69 70 66 60 54 40 34 25 21 20 18 21 26 29 34 36 36 41 46 55 70 78 84
30 48 40 42 34 34 36 40 36 39 37 40 46 45 43 45 50 53 57 63 68 71 69 62 57 40 34 26 24 22 20 23 26 30 35 38 41 53 59 61 53 56 56 75
46 40 41 34 28 28 29 33 36 36 38 40 46 47 49 49 52 56 59 64 68 68 64 58 40 34 26 22 23 22 24 26 34 37 41 44 55 64 65 71 53 53 75 84

GFSCGP_850_rhum_105.txt.gz
RH
52 48 48 37 35 37 42 41 45 40 38 53 45 44 37 32 35 45 48 52 60 69 76 83 87 98 99 97 97 89 78 65 53 49 61 77 86 92 98 98 84 84 79 86
46 51 41 41 44 46 48 47 51 43 43 50 47 48 38 35 42 51 54 57 69 82 84 93 99 98 96 97 85 72 94 77 57 51 81 86 88 93 97 100 86 77 68 65
49 46 47 48 61 54 47 45 46 66 52 45 54 45 47 42 49 53 51 58 66 78 94 98 98 98 99 99 88 97 98 89 88 84 89 90 96 82 89 81 66 72 74 84
48 49 50 51 73 53 57 42 50 61 66 71 48 70 44 40 43 47 47 58 70 85 96 100 96 98 100 99 100 100 100 97 95 100 94 88 88 99 99 100 100 98 99 87
72 58 62 60 62 49 55 49 53 57 70 78 58 84 45 41 41 44 53 69 83 96 99 98 98 100 99 100 99 98 99 100 97 100 78 66 70 98 99 99 100 94 89 83
52 54 54 52 49 48 47 56 62 61 69 83 56 60 48 48 55 64 69 83 95 100 98 98 99 100 100 100 100 100 100 100 100 98 78 69 74 99 97 97 98 98 97 93
61 60 54 56 63 57 61 79 87 86 88 75 50 61 49 47 82 83 87 94 100 99 98 98 98 98 100 99 97 95 94 94 95 96 97 99 100 96 99 97 98 100 99 98
85 94 60 55 60 69 78 84 88 80 73 68 56 80 59 71 85 88 98 99 99 98 99 100 99 100 100 99 95 88 81 83 82 77 76 78 74 91 93 86 85 88 93 97
78 96 54 56 53 60 85 92 71 98 62 84 62 59 67 76 80 80 92 99 99 99 99 99 99 99 98 97 96 93 87 88 70 62 80 84 83 80 72 69 54 48 43 46
58 81 53 60 62 58 56 63 89 100 90 75 64 61 72 90 98 95 94 99 98 99 98 98 97 97 94 92 87 84 72 69 77 78 51 54 61 64 55 33 20 19 20 21
54 55 58 58 63 54 69 66 66 59 65 80 58 58 64 79 94 95 94 100 100 98 98 98 91 81 81 73 67 66 48 36 27 25 24 24 26 27 26 23 20 19 19 19
54 56 65 51 46 46 48 50 43 59 61 54 54 52 59 70 74 92 90 99 98 99 98 91 85 78 58 42 39 40 35 25 23 23 23 25 24 22 22 22 22 24 24 23
52 59 69 52 48 46 54 45 44 45 53 63 56 42 56 65 72 84 82 92 98 92 84 79 66 65 65 54 51 45 35 29 24 25 32 29 24 25 27 26 26 26 24 23
59 53 56 55 44 43 45 44 45 50 66 45 41 31 52 61 63 73 82 83 78 68 65 62 59 62 65 60 47 44 41 27 26 28 30 30 29 29 29 28 26 24 21 16
53 62 58 50 41 39 42 44 41 56 54 50 30 36 30 41 53 59 68 66 60 58 58 56 60 62 64 64 53 43 35 31 30 30 31 31 29 28 27 27 23 17 15 15
51 64 55 76 40 44 49 41 40 40 40 42 39 40 27 28 44 48 52 54 57 55 51 54 58 63 67 66 62 48 39 35 34 35 36 33 31 29 24 14 10 10 10 10
48 56 61 59 38 37 38 30 35 36 33 34 39 28 27 32 39 45 46 50 52 52 49 53 58 62 67 68 60 49 40 37 38 37 34 33 31 21 16 19 22 32 44 49
47 52 57 76 48 51 26 32 36 31 30 29 32 29 34 35 39 45 48 48 50 53 50 53 57 62 70 67 62 48 41 41 41 40 37 32 18 15 15 14 16 23 28 35
47 48 56 65 41 27 20 29 37 40 26 25 32 29 30 41 50 48 49 48 48 47 49 54 59 65 73 67 60 46 45 48 40 33 26 15 15 14 18 26 31 32 34 29
50 49 54 44 47 24 20 29 36 35 30 20 26 26 29 48 47 29 42 51 54 57 58 62 68 67 67 65 54 48 48 42 32 25 19 18 16 17 21 25 27 28 32 32
55 54 63 55 53 34 23 35 40 33 23 25 31 32 35 49 37 54 51 54 60 62 62 63 63 66 66 59 52 50 44 33 26 20 18 16 21 30 35 34 34 36 36 40
32 40 47 43 47 58 36 45 32 25 30 36 40 40 44 47 53 56 58 54 53 56 58 63 65 66 60 56 53 45 33 28 21 18 18 24 31 42 44 48 55 61 66 69
38 23 22 28 30 28 38 26 32 35 34 39 39 45 50 52 54 62 59 55 54 56 60 65 64 61 59 56 46 33 30 21 19 19 24 34 43 50 59 67 68 72 74 74
29 27 35 28 20 23 25 28 33 42 41 39 44 44 42 45 52 58 56 57 58 59 64 66 66 64 58 49 34 28 23 20 19 22 30 39 46 55 65 75 78 77 77 79
26 35 33 30 26 26 26 28 30 33 35 37 39 47 50 44 52 51 56 55 58 62 67 68 69 61 52 37 30 24 20 18 20 28 34 41 51 54 70 68 72 76 81 95
33 34 37 30 24 23 24 32 32 37 38 38 38 46 53 52 54 52 56 56 59 63 66 69 64 54 38 32 23 20 18 21 30 32 37 45 48 57 67 72 65 77 96 100

GFSCGP_850_rhum_108.txt.gz
RH
49 61 67 42 47 39 42 38 49 43 39 54 56 52 44 34 33 40 46 50 59 72 79 83 90 96 87 83 73 72 74 72 92 73 57 50 54 78 88 92 91 83 80 75
54 65 43 39 41 43 44 45 53 48 43 49 56 57 49 42 43 49 51 55 64 70 81 86 88 96 99 93 85 74 80 73 84 88 64 48 65 75 77 82 88 93 80 77
62 48 43 45 67 52 50 48 52 66 56 51 56 62 50 44 49 52 51 56 67 79 85 94 99 92 100 100 93 84 99 99 81 82 78 72 74 72 76 76 78 90 88 86
54 46 46 50 70 53 59 44 49 59 74 91 60 94 56 56 52 49 49 63 81 86 89 98 98 96 98 99 98 92 92 99 96 84 79 83 95 79 78 90 93 99 97 89
70 58 59 57 63 48 62 51 56 61 63 77 64 89 69 47 48 53 67 83 89 82 96 99 91 92 97 98 100 94 91 100 98 97 91 97 92 80 85 97 74 99 97 94
56 52 52 56 47 48 47 57 62 59 69 83 71 78 71 62 59 68 72 85 93 81 85 92 90 97 100 98 99 99 97 98 100 100 97 99 96 77 78 79 94 95 99 97
66 60 54 54 59 56 58 72 84 91 92 90 64 69 68 66 79 80 85 89 94 95 96 96 93 97 98 96 94 93 90 90 87 87 94 97 100 97 96 96 94 100 98 99
77 95 63 56 63 72 77 81 96 81 84 86 61 86 75 78 78 85 89 88 97 98 98 99 99 100 100 99 93 93 91 75 69 85 90 82 76 80 86 81 77 68 64 60
86 93 56 56 48 59 88 95 70 92 68 89 81 69 79 80 78 78 85 92 96 98 98 98 98 98 95 93 90 82 83 93 88 77 57 55 62 65 61 61 55 65 69 38
58 76 57 59 59 60 64 60 91 97 95 90 82 75 87 94 86 85 86 89 93 98 98 99 99 97 90 86 75 67 60 51 56 50 48 45 47 40 39 27 31 29 23 23
54 58 66 65 75 66 66 67 64 60 71 80 84 82 67 85 79 80 78 83 94 98 98 97 91 84 75 60 42 38 33 25 26 23 24 24 23 23 25 27 30 30 31 31
58 66 81 65 52 47 51 57 54 76 78 73 66 76 63 74 78 81 81 86 96 95 94 90 83 66 59 52 40 32 28 29 25 24 26 25 24 26 27 27 27 26 24 23
57 68 85 59 53 47 57 53 54 47 67 81 81 68 66 70 79 82 78 85 92 97 95 88 79 65 64 62 47 40 34 28 26 26 29 31 31 30 29 28 26 23 19 14
60 60 68 82 56 45 54 50 52 56 90 73 66 52 76 74 74 78 78 81 87 88 85 76 66 60 62 64 54 42 37 31 30 31 32 33 32 30 27 25 19 11 10 11
59 72 61 62 56 52 51 49 50 61 61 69 45 46 38 53 68 68 72 77 81 79 72 62 60 59 62 64 63 51 44 38 35 35 35 34 31 29 28 20 14 13 13 12
56 75 62 86 54 49 57 50 46 45 49 55 54 55 37 30 43 57 65 72 73 66 58 57 55 57 62 64 65 61 50 42 38 39 39 38 35 31 20 12 10 9 8 9
52 68 76 81 55 58 62 43 43 45 42 43 54 42 33 32 43 51 54 58 58 56 57 54 51 56 60 64 66 64 55 44 41 43 41 36 31 21 13 12 11 12 16 21
53 58 70 92 71 73 37 33 39 38 36 39 36 34 34 35 35 39 45 46 48 50 52 51 50 55 60 65 66 65 56 45 45 45 39 33 24 13 12 10 14 20 24 27
52 59 78 89 72 49 30 40 39 43 36 34 33 33 31 35 44 44 42 45 48 49 50 52 51 56 61 63 64 64 52 48 50 42 34 24 15 11 11 17 25 32 36 33
52 57 74 65 63 52 28 31 34 33 41 29 27 32 34 50 68 55 40 41 47 49 48 50 53 58 62 65 64 60 51 52 46 35 25 15 12 13 17 25 30 32 36 35
75 76 87 86 78 60 32 36 37 31 30 26 29 30 31 60 52 44 46 48 51 52 52 55 58 61 63 64 64 55 53 50 38 27 15 12 12 17 29 34 36 36 38 40
61 73 78 70 69 73 38 45 37 30 31 33 32 36 38 40 47 48 50 50 51 52 55 61 62 62 64 65 58 55 52 39 28 15 12 13 21 34 37 36 34 42 48 52
43 34 39 50 56 35 36 28 29 27 32 34 33 31 27 36 47 50 50 52 52 51 55 58 61 64 64 60 58 55 41 29 17 14 14 20 29 33 36 41 48 54 61 67
33 27 45 34 26 24 23 25 24 34 37 34 38 37 38 39 35 48 50 51 54 55 54 57 62 63 63 63 58 46 30 18 14 14 19 28 31 32 36 44 57 61 64 65
37 35 42 44 32 27 25 23 24 26 29 34 34 32 41 43 44 48 51 54 55 56 55 61 65 66 66 61 52 31 20 16 14 18 26 29 32 35 34 40 54 61 69 88
37 34 43 34 27 27 27 25 24 28 28 30 32 34 35 39 47 52 53 55 55 58 60 64 67 68 64 56 34 25 17 14 18 26 27 29 30 31 37 45 45 56 68 88

GFSCGP_850_rhum_111.txt.gz
RH
50 68 71 51 44 41 41 43 50 44 48 50 59 62 53 43 39 46 52 59 62 63 70 70 67 68 67 66 64 69 68 65 62 58 79 77 62 54 46 66 76 79 84 93
68 69 46 47 48 48 49 47 57 55 50 51 61 63 53 51 50 53 53 60 66 69 71 75 68 66 82 87 88 80 78 72 76 71 72 80 77 57 75 70 76 84 97 95
71 55 45 57 65 56 52 52 66 69 62 59 64 68 52 51 54 52 52 71 76 75 76 78 94 97 98 98 98 96 85 80 82 75 78 75 77 67 79 81 85 95 98 96
62 48 50 63 68 57 66 53 56 65 78 90 65 82 72 57 61 60 72 79 80 80 80 94 88 88 92 91 96 99 84 82 95 90 94 84 85 96 96 81 89 100 100 100
73 59 59 61 66 50 69 56 62 65 72 83 75 92 75 61 62 71 89 88 87 83 90 83 86 88 88 84 84 95 95 88 95 93 99 99 94 98 100 100 99 98 97 89
61 52 55 62 52 52 55 63 67 61 72 96 76 82 80 68 57 76 87 88 89 89 91 88 83 85 92 85 85 92 91 92 89 92 99 100 100 100 100 98 97 90 98 99
66 65 56 55 65 58 57 79 94 88 98 91 69 82 75 64 80 81 85 89 87 97 90 81 87 87 90 92 89 87 81 78 81 85 81 83 92 94 86 80 81 85 82 81
87 82 72 60 60 79 78 77 95 92 98 91 67 83 70 80 83 82 83 81 82 94 90 82 89 96 95 92 88 87 93 89 83 65 60 68 66 63 64 70 72 68 58 43
88 91 61 61 46 63 85 90 73 93 83 95 86 71 72 84 86 85 81 81 84 87 96 90 92 96 95 93 83 69 59 69 72 72 63 49 42 43 35 34 36 33 35 34
64 89 67 63 60 62 68 67 86 96 96 80 85 79 84 91 88 86 87 85 84 90 91 97 97 98 85 84 62 45 33 28 29 25 24 23 23 23 26 28 29 28 28 30
58 65 73 72 82 75 70 76 72 68 74 83 91 81 73 76 86 87 83 79 83 91 88 89 90 84 78 57 41 31 26 23 22 22 23 24 24 26 28 28 28 26 25 23
61 72 93 74 61 57 63 68 68 85 83 74 82 78 64 75 82 79 79 79 86 95 87 89 86 74 62 63 50 35 30 28 27 26 27 28 29 30 29 28 25 24 19 13
62 77 89 73 61 53 60 62 61 59 73 81 89 75 77 77 83 81 80 80 83 86 87 85 80 68 64 63 58 46 37 33 30 31 32 33 32 31 29 27 23 15 10 9
61 74 74 80 62 59 69 62 64 66 94 78 84 70 78 84 84 82 78 73 74 78 79 74 71 66 64 62 61 58 45 39 36 35 36 37 36 32 29 25 15 12 12 13
68 81 69 68 68 65 64 59 58 76 64 75 56 59 46 67 81 68 57 67 71 73 74 70 67 64 62 60 60 61 57 47 42 38 39 40 37 33 28 17 12 11 10 10
64 74 71 84 63 66 72 64 58 54 59 59 56 56 40 36 38 56 60 64 70 66 64 64 64 63 61 57 60 62 63 57 47 41 42 42 36 29 22 12 10 9 10 14
72 78 80 74 71 69 53 52 52 52 52 50 64 48 44 42 49 53 57 59 57 53 54 58 60 59 56 55 59 62 64 62 51 43 46 43 36 29 16 11 9 10 16 20
62 65 80 90 75 58 27 32 39 47 43 42 43 44 40 39 33 36 44 46 50 49 49 52 56 57 52 55 60 64 67 64 50 48 48 40 32 18 12 10 13 18 23 24
60 70 79 86 85 56 35 41 38 42 32 40 41 37 36 31 40 42 37 45 47 48 48 50 52 53 51 55 60 65 67 61 51 51 45 33 20 12 10 12 18 24 26 30
58 66 80 82 74 60 26 29 34 30 31 26 38 41 41 50 63 42 36 36 39 47 50 50 53 53 53 57 62 65 64 57 53 50 36 24 13 10 12 19 24 28 33 38
80 80 90 92 92 76 48 32 36 20 14 26 27 28 37 58 38 35 40 42 46 47 49 50 51 52 55 60 64 64 62 54 53 39 27 15 11 12 20 25 32 36 38 41
75 89 94 89 93 81 39 43 32 23 31 25 25 25 28 30 34 40 43 45 48 49 50 54 56 58 62 65 64 63 57 55 45 29 16 11 12 20 25 30 32 34 37 39
49 53 66 69 66 39 35 30 24 26 25 24 29 28 32 36 38 43 45 48 48 49 51 54 57 60 63 63 64 59 57 51 32 19 12 11 19 24 27 32 34 35 40 44
34 32 41 33 29 32 29 28 28 28 31 29 31 32 32 35 36 41 50 54 54 50 52 55 56 59 61 63 62 61 55 36 22 12 10 17 22 23 27 32 34 40 44 49
42 37 43 46 33 29 23 24 25 24 24 24 28 37 36 35 34 41 43 50 54 54 56 58 57 59 63 64 64 59 42 26 13 10 15 22 24 24 24 27 33 40 47 66
44 39 46 39 25 26 26 27 26 24 25 27 33 32 34 36 38 39 42 48 54 54 56 58 60 64 64 64 62 54 31 15 10 14 21 23 23 25 25 27 30 46 55 64

GFSCGP_850_rhum_117.txt.gz
RH
54 61 65 50 48 49 50 50 50 52 48 53 59 62 57 41 41 44 43 51 74 78 75 74 69 67 65 64 67 69 72 74 74 73 69 70 82 78 91 92 78 82 86 77
64 67 48 50 48 49 50 55 64 61 53 59 67 70 62 57 56 50 49 58 71 77 76 74 70 69 70 73 75 78 79 76 75 71 78 84 90 100 100 99 83 90 89 84
67 54 51 52 56 62 66 65 66 63 63 62 70 50 54 57 60 64 59 62 70 74 76 76 74 72 74 76 74 77 79 74 72 72 78 80 88 98 95 95 99 98 97 94
66 52 60 65 66 61 64 58 65 68 71 58 66 57 50 59 65 68 78 75 74 75 76 76 76 73 75 78 75 78 78 72 70 71 78 91 93 88 97 99 97 92 98 92
67 58 66 71 63 59 67 58 65 66 79 77 68 86 66 65 69 74 80 80 79 79 81 80 78 75 77 78 76 77 80 79 79 73 71 86 86 80 86 91 96 99 99 100
63 53 60 60 59 58 59 69 72 82 80 79 66 82 72 69 61 56 78 76 81 84 82 80 79 77 79 78 83 80 72 67 70 70 69 64 64 71 72 72 70 68 64 60
75 73 61 58 69 62 67 78 82 63 86 70 74 87 75 52 58 62 72 79 82 81 79 84 79 80 81 83 87 87 85 80 71 58 51 50 54 53 57 55 51 53 52 51
86 73 69 58 64 72 79 73 78 43 94 92 77 92 67 58 72 74 72 73 76 78 80 79 80 79 86 84 77 61 56 64 53 42 26 24 24 26 30 30 31 34 36 30
93 88 65 64 58 60 71 88 72 89 87 95 89 71 61 79 81 84 81 80 76 76 79 79 79 78 82 84 77 52 34 26 26 23 24 24 24 25 25 26 27 26 24 21
72 94 68 62 57 61 65 72 84 88 90 93 86 80 77 73 70 77 88 84 75 77 78 77 74 77 82 85 78 45 30 26 24 24 25 26 27 29 30 29 28 24 21 15
70 73 68 64 80 82 81 83 77 79 84 91 88 64 63 64 63 60 70 66 67 68 67 72 71 76 81 81 73 40 33 28 28 28 30 32 33 33 31 29 26 22 15 9
66 80 96 82 65 67 70 78 77 86 76 86 84 77 49 69 60 64 57 51 53 57 60 67 68 72 73 71 51 50 46 37 33 32 33 36 37 38 35 31 26 21 11 9
63 75 88 74 67 66 76 76 72 71 78 84 90 60 60 76 76 67 61 51 51 53 56 62 65 60 61 58 54 58 59 53 42 39 38 39 40 41 39 33 27 19 11 9
58 79 69 64 49 69 79 73 75 72 92 83 84 72 53 52 77 68 59 52 48 49 52 56 60 56 56 55 56 59 60 61 58 48 45 43 42 43 43 35 28 16 10 9
69 74 82 79 78 71 70 69 77 83 70 76 56 69 44 43 42 38 30 40 50 49 50 48 52 53 53 54 55 58 60 61 61 60 54 50 46 45 46 37 28 14 11 10
76 70 74 86 68 80 82 77 74 72 74 73 69 70 44 39 38 41 40 40 44 41 44 45 47 50 49 50 52 58 59 57 60 62 61 58 51 47 47 37 24 12 10 11
80 82 80 78 62 72 56 62 58 63 67 59 72 51 43 46 46 40 31 32 34 32 32 35 38 43 45 46 48 55 57 59 61 63 64 62 55 49 48 35 18 10 10 15
79 72 85 91 71 37 22 37 48 56 51 53 48 41 39 42 37 36 33 32 32 31 30 30 31 38 43 45 50 54 61 64 61 63 65 65 56 51 46 28 12 10 13 19
67 76 82 88 89 51 21 41 50 46 29 43 47 43 39 39 40 36 26 28 26 26 32 37 38 43 48 48 48 55 61 62 61 63 66 66 56 53 38 19 10 11 18 22
78 75 77 86 79 38 17 28 36 30 24 15 38 44 44 45 47 43 27 24 23 29 31 36 41 46 50 51 52 56 59 59 58 62 66 64 55 50 29 13 11 18 21 22
87 89 93 92 93 80 54 36 34 23 14 22 30 28 34 50 32 28 32 23 25 31 32 37 40 41 45 50 53 55 58 57 58 66 68 60 55 38 18 12 16 22 23 24
83 94 98 92 98 71 46 45 29 23 20 26 26 26 26 26 24 28 29 28 30 31 36 42 44 44 46 48 54 57 58 58 65 68 64 56 47 25 12 14 22 23 24 23
55 56 69 76 67 42 40 36 27 30 35 31 28 27 34 34 30 29 31 33 33 33 45 49 48 46 46 47 53 56 58 63 67 66 58 54 34 16 13 19 23 24 24 23
45 46 54 44 30 46 28 26 29 28 27 26 27 28 28 30 29 33 37 38 37 35 39 49 55 52 51 54 57 61 66 68 65 60 57 42 21 13 16 22 23 24 23 24
42 44 47 54 38 28 23 28 34 39 37 33 35 32 31 33 32 35 40 39 36 38 40 44 53 58 56 58 60 64 66 64 62 60 52 30 14 14 20 22 24 24 23 28
53 49 50 49 40 44 44 46 44 47 49 45 42 35 35 36 36 39 39 41 43 42 43 46 47 61 62 63 63 64 64 65 63 60 40 21 14 17 21 22 23 26 27 36

GFSCGP_850_rhum_120.txt.gz
RH
45 64 65 50 50 38 54 49 50 55 50 56 57 63 57 41 45 43 34 37 55 70 71 68 66 65 63 60 62 64 70 72 71 69 66 66 71 94 98 81 81 75 86 86
64 70 52 51 51 54 51 54 67 62 55 62 67 71 60 57 54 47 41 38 44 74 74 72 72 70 65 65 70 71 77 77 75 75 78 79 87 99 98 94 98 97 97 91
65 57 54 52 62 60 70 62 63 60 62 62 71 47 42 59 62 62 58 54 50 64 72 75 74 72 70 74 72 74 80 77 73 73 78 82 83 84 82 85 89 89 89 87
68 55 62 66 68 59 58 62 68 68 65 53 64 55 39 53 65 70 70 65 65 73 77 76 76 75 74 77 75 77 80 78 74 72 71 75 74 76 82 87 92 96 94 94
71 65 69 72 65 59 68 62 70 70 80 75 66 79 53 65 64 67 75 69 69 73 76 78 78 76 76 78 79 77 74 73 73 70 68 72 75 72 72 68 70 71 68 67
65 57 64 61 66 62 63 70 67 79 78 73 64 80 63 60 58 52 65 64 67 73 76 78 78 79 80 79 81 76 71 70 65 61 59 61 62 62 61 61 60 57 56 54
74 74 63 60 67 63 67 76 74 58 80 68 74 89 71 51 54 54 56 58 65 72 76 77 77 78 81 78 83 81 80 77 69 54 36 30 29 36 40 42 43 41 38 34
77 64 67 61 64 69 78 69 72 32 75 88 83 95 68 56 69 65 66 63 66 74 75 73 73 73 78 79 74 57 49 55 47 31 23 22 23 23 24 24 25 25 24 23
93 94 67 65 62 59 79 84 69 88 90 92 87 71 59 62 74 79 76 76 70 70 70 72 74 72 79 81 76 61 36 27 25 23 24 25 25 27 28 27 26 24 20 17
73 95 69 63 61 65 65 71 82 91 77 84 81 77 74 66 66 75 82 75 66 68 70 68 69 69 77 81 82 64 32 27 25 26 27 29 31 32 32 30 27 24 20 14
70 74 73 64 78 82 85 83 82 81 83 88 84 54 62 60 58 54 58 54 55 56 54 55 59 62 73 79 73 64 40 31 29 30 31 33 35 37 37 34 31 26 21 12
67 80 96 79 66 68 71 75 77 83 74 88 87 75 46 63 60 58 52 46 44 43 48 51 56 62 67 68 67 58 42 37 35 34 35 37 38 39 40 39 35 29 22 12
65 76 88 72 68 73 80 79 73 73 79 86 87 48 50 63 72 64 63 50 45 42 47 49 54 57 59 58 59 52 47 50 49 44 42 40 40 41 42 43 40 32 23 11
57 78 66 60 46 74 86 80 78 72 93 82 86 72 51 44 49 48 48 48 48 47 44 47 50 51 53 50 50 48 50 54 57 58 52 48 46 44 44 45 44 34 22 10
64 64 84 78 76 72 72 73 86 85 73 80 64 78 54 47 45 39 38 36 37 37 40 45 43 44 48 51 48 48 50 54 58 60 61 58 52 49 46 47 47 37 22 10
78 66 75 85 67 80 87 80 79 82 78 79 74 76 50 46 47 44 38 37 34 31 33 35 39 45 45 46 46 45 47 51 59 60 59 62 59 56 52 48 49 37 19 10
77 80 80 74 64 74 58 69 75 74 75 67 74 52 46 46 46 42 36 34 33 31 30 30 31 32 34 39 44 45 44 50 59 62 60 63 63 62 56 50 51 36 16 10
83 75 86 92 70 31 19 36 48 62 57 61 54 46 40 42 37 35 30 36 33 29 27 27 29 32 33 36 42 47 50 52 60 65 63 63 65 65 61 53 51 32 13 11
69 77 84 87 87 45 24 46 53 46 25 48 54 50 45 37 38 24 20 24 24 23 22 20 25 33 37 41 44 49 52 56 60 64 68 64 65 67 62 55 48 25 10 14
80 78 77 88 74 27 14 28 38 35 19 16 39 37 38 40 39 35 24 25 27 24 24 24 24 31 37 42 51 52 50 52 57 61 63 64 65 68 62 56 41 15 11 17
90 88 93 91 91 76 50 38 38 21 18 24 30 30 32 46 33 29 31 29 30 29 29 30 31 38 44 46 49 54 56 55 56 61 67 64 66 68 59 53 28 11 14 19
86 96 96 89 97 61 47 45 30 23 30 34 31 31 34 32 30 30 31 31 32 33 34 34 34 45 47 47 49 50 54 57 61 67 64 65 68 65 57 43 17 12 19 20
59 60 73 78 67 42 41 37 30 35 38 34 40 35 33 38 33 31 33 33 34 38 40 36 35 37 45 50 48 46 50 60 65 63 64 68 68 60 53 29 12 18 21 21
47 51 57 46 33 44 30 30 33 40 38 45 46 45 44 43 36 35 35 34 36 40 38 36 36 36 36 50 54 54 57 61 63 65 68 68 62 57 40 17 13 21 22 22
43 51 50 54 39 36 29 42 48 44 52 57 57 55 52 46 40 39 38 39 41 42 43 41 38 39 41 49 60 60 62 64 67 69 68 64 59 50 26 14 19 22 23 23
56 50 53 54 45 58 58 49 44 42 55 63 68 55 49 48 45 45 45 49 49 48 46 41 41 48 47 52 64 65 65 67 68 66 65 62 58 37 18 15 22 24 23 24

GFSCGP_850_rhum_126.txt.gz
RH
42 33 37 30 31 27 28 28 36 42 48 42 31 33 25 24 32 25 21 26 36 54 68 50 55 58 60 59 57 56 56 56 62 64 66 72 70 70 69 68 73 74 76 76
44 51 46 40 34 28 25 29 43 48 50 41 39 32 22 22 26 26 24 23 27 38 66 47 52 60 62 61 59 58 58 61 66 67 68 69 73 76 76 79 82 78 79 75
40 50 47 38 37 33 38 26 37 50 47 43 40 19 23 26 33 37 38 37 36 38 45 69 50 59 62 63 61 60 60 66 67 67 68 70 75 79 78 76 73 74 74 71
50 51 44 42 51 37 39 51 45 44 32 30 42 33 20 21 26 42 43 51 50 56 54 69 56 59 64 64 62 62 64 68 67 67 68 71 71 70 65 64 64 62 60 58
65 52 49 54 64 51 56 50 48 45 40 42 37 51 17 29 21 24 32 46 55 63 65 71 57 62 64 65 65 65 68 68 67 65 63 64 64 63 62 61 58 55 52 48
60 62 58 60 57 51 52 46 49 46 45 50 50 42 22 24 28 35 42 44 58 62 61 64 64 64 66 68 67 68 69 66 64 63 60 58 54 53 51 46 41 31 24 23
52 61 57 55 53 51 50 48 82 72 84 51 60 55 23 28 32 38 43 47 58 65 62 62 63 64 69 68 62 68 69 67 65 59 45 30 22 23 24 24 24 24 24 21
72 69 58 57 54 48 56 49 68 81 42 48 62 56 31 39 55 46 53 58 56 59 62 64 61 63 64 62 62 68 71 70 67 52 27 22 23 24 25 26 26 26 24 21
65 92 61 60 55 54 58 59 50 66 64 54 38 36 34 39 43 41 53 62 61 59 53 52 54 58 61 59 59 67 66 55 43 33 28 24 26 27 29 30 31 29 27 24
54 81 62 63 59 58 54 51 57 60 60 44 41 43 51 54 52 42 44 48 53 54 49 47 48 50 51 54 59 64 48 41 30 25 25 25 28 30 32 35 36 35 32 27
49 50 71 62 62 54 62 62 58 50 56 49 34 23 32 40 44 43 39 44 44 38 40 42 41 43 47 50 53 58 53 47 34 28 27 28 30 33 36 37 38 40 39 34
56 52 70 60 61 58 58 54 45 42 57 55 50 29 30 36 46 50 43 47 47 39 36 34 35 37 39 45 50 53 56 52 43 37 31 31 33 35 38 40 41 42 43 42
54 54 71 65 61 64 67 59 53 49 50 56 39 19 27 35 41 40 37 33 36 40 42 42 40 40 39 40 43 47 49 46 45 44 39 37 37 39 41 43 45 46 46 46
53 57 52 37 46 55 68 68 59 49 60 44 40 28 25 27 28 34 34 34 33 33 36 37 37 37 34 40 43 43 46 47 50 49 48 43 45 47 47 47 49 50 50 49
48 52 62 51 52 56 58 63 68 64 48 44 33 44 31 33 33 34 35 31 30 29 33 36 40 33 33 35 36 40 43 46 49 51 51 45 49 55 57 55 53 53 53 52
61 58 60 67 56 55 56 47 52 61 55 53 49 48 33 34 33 30 27 26 30 29 32 30 31 30 30 31 32 35 37 44 50 53 51 49 50 56 59 60 58 57 57 56
56 58 59 45 51 50 44 41 44 46 52 46 47 33 35 30 29 30 28 30 31 32 35 32 30 30 28 28 29 30 36 40 46 50 55 56 52 54 60 64 62 60 60 59
59 56 64 62 49 34 22 37 39 44 41 45 42 38 34 34 33 34 30 31 33 33 37 37 35 31 32 30 30 29 31 41 46 49 51 58 60 57 61 67 67 62 62 63
56 51 58 56 44 31 29 40 43 38 24 34 40 34 30 32 35 28 28 30 36 38 34 33 33 33 32 34 34 32 38 48 54 52 51 53 60 65 65 66 70 65 63 65
60 54 48 59 52 16 16 28 39 36 22 28 37 32 33 39 39 27 35 42 40 36 35 36 33 32 34 39 38 34 45 50 50 55 59 60 60 65 68 68 73 69 64 66
68 67 65 59 58 37 29 38 40 25 21 32 36 39 41 40 38 45 52 50 47 45 38 37 36 36 41 41 38 37 42 46 53 54 60 64 64 65 70 74 78 72 65 66
59 66 68 66 69 50 43 45 33 34 42 46 43 44 46 53 61 62 62 56 46 43 41 43 45 43 42 42 41 40 40 43 49 53 51 55 66 69 72 76 80 69 67 66
46 45 45 48 39 41 46 40 40 47 49 50 50 46 55 65 68 64 61 54 49 50 51 51 51 47 45 45 43 38 35 36 44 54 54 56 66 74 77 81 76 67 68 63
44 52 44 46 41 44 38 41 49 48 48 39 40 44 48 57 63 64 62 58 56 52 50 48 46 42 39 38 39 43 44 45 49 59 59 61 68 74 78 75 68 69 66 57
38 48 44 42 37 42 43 46 45 38 38 42 47 46 49 57 56 60 57 57 55 52 46 44 38 36 41 48 51 52 53 53 60 64 63 63 66 68 68 68 69 68 61 48
46 37 35 32 40 48 48 37 34 35 37 36 36 40 42 44 45 48 47 49 47 45 44 44 46 47 48 49 50 54 57 57 62 65 66 67 69 71 71 71 69 63 56 37

GFSCGP_850_rhum_129.txt.gz
RH
36 33 37 25 24 22 22 27 28 33 38 31 23 20 15 18 22 20 15 15 21 36 47 63 72 56 47 50 53 55 53 52 52 61 73 97 69 71 76 80 76 75 75 75
39 38 34 27 24 24 22 24 31 37 37 32 25 26 17 15 17 20 18 15 15 22 39 62 76 64 56 64 58 57 56 56 57 62 64 67 67 71 75 78 77 76 75 74
42 40 38 26 24 21 21 23 34 50 35 31 28 19 15 13 13 16 19 18 18 20 27 43 71 78 80 73 61 59 58 57 59 64 67 71 68 74 80 68 67 68 64 62
41 39 32 32 40 31 34 30 29 32 29 29 26 30 16 14 21 23 24 29 30 32 35 35 52 74 80 76 60 59 59 57 63 64 69 73 85 88 66 63 61 58 57 56
56 40 36 43 52 38 45 33 31 25 27 28 26 43 12 20 16 17 21 30 37 44 51 49 58 72 78 70 58 58 58 59 62 64 64 64 65 64 62 60 56 53 43 30
52 51 49 49 42 40 38 33 32 28 32 45 35 30 17 18 20 28 32 29 44 52 58 62 68 75 68 58 58 62 58 62 63 63 62 61 61 59 56 46 36 25 23 21
47 53 50 44 44 43 40 33 88 77 93 50 44 39 16 22 26 30 36 38 46 56 60 66 70 61 60 69 64 61 58 64 63 61 57 52 34 25 24 24 24 24 23 20
70 74 52 49 46 37 42 41 76 80 42 50 46 45 29 30 38 40 38 47 53 56 61 64 70 75 75 64 63 64 60 63 64 64 57 35 23 22 22 23 25 26 25 23
55 85 54 50 42 47 44 49 42 48 40 41 33 30 26 30 34 34 41 51 49 54 59 63 64 58 59 67 61 54 56 60 64 64 50 32 24 23 24 27 29 31 30 28
40 70 51 56 50 48 47 40 47 54 65 39 39 34 43 49 46 34 38 39 41 48 56 57 59 59 50 43 44 47 50 55 53 41 35 26 24 25 28 30 33 35 36 35
34 39 62 52 51 41 48 47 44 40 42 47 22 31 26 36 37 35 32 36 39 42 45 44 38 34 36 40 43 47 53 54 45 40 30 25 25 27 30 33 36 37 38 39
43 40 57 48 51 49 48 39 31 35 43 37 38 29 24 32 38 39 33 28 30 36 42 44 46 49 53 46 45 45 50 63 58 54 43 31 29 30 32 35 38 40 42 43
43 43 62 56 53 53 57 44 40 40 41 44 34 24 26 32 26 24 27 27 25 25 26 27 31 36 48 52 57 62 61 57 62 67 58 46 37 33 34 36 39 42 44 46
52 44 49 43 52 44 54 50 46 40 50 33 32 22 23 23 24 26 25 25 24 23 24 27 30 32 36 42 50 57 63 59 56 60 63 54 45 41 38 40 42 44 46 49
44 48 56 41 43 47 49 52 52 52 45 41 30 30 23 24 25 25 23 21 21 23 26 30 33 35 37 39 44 52 46 56 60 64 65 55 51 50 47 45 49 51 51 52
45 50 47 62 42 42 43 37 44 51 44 42 37 35 24 26 23 23 23 23 25 25 28 30 34 36 37 40 37 32 32 36 49 56 58 62 63 60 55 49 50 55 57 56
42 48 50 37 38 38 36 32 32 34 37 38 41 27 26 26 25 27 26 27 26 27 32 34 35 35 38 44 38 31 32 34 38 46 54 66 71 71 64 60 54 55 58 59
46 43 50 60 42 41 24 28 30 29 30 30 32 28 29 28 27 29 29 29 29 34 36 38 38 41 43 46 46 43 38 37 37 47 57 67 80 84 85 77 67 59 61 64
46 37 45 56 35 23 28 33 36 38 26 26 32 30 27 29 33 25 31 35 40 43 46 46 44 44 39 43 54 48 40 39 40 48 55 64 73 73 86 83 76 70 66 68
52 47 46 42 42 19 22 30 32 30 25 31 32 30 34 35 37 25 34 48 50 52 52 51 51 46 50 45 40 38 36 36 36 40 47 53 62 70 76 74 76 79 78 74
58 52 53 47 47 31 24 33 34 28 30 34 38 37 37 34 31 37 52 56 57 57 53 45 43 46 47 46 44 42 41 39 39 39 42 49 54 60 73 82 85 86 84 80
47 53 54 47 52 51 37 38 31 33 38 41 40 41 40 42 45 54 62 65 59 53 51 51 50 46 45 44 44 40 40 41 40 40 38 46 54 57 62 78 85 86 84 83
41 33 33 37 33 35 38 36 42 47 43 45 46 45 49 54 56 63 68 67 64 60 57 52 46 38 36 38 43 44 45 48 48 48 47 55 59 61 68 79 86 86 87 85
33 40 37 39 33 38 38 44 49 40 46 43 42 39 41 54 58 63 62 58 60 58 48 44 42 41 43 46 48 50 49 51 52 52 58 63 62 63 68 76 83 85 84 76
34 40 34 34 32 34 40 48 46 48 44 41 39 43 49 57 60 60 54 50 46 45 46 46 45 44 43 43 44 46 47 51 55 58 62 65 65 66 68 70 75 75 73 69
37 31 35 28 31 37 41 48 36 39 44 45 46 47 44 43 41 39 37 38 38 38 38 37 37 39 42 42 42 44 45 49 52 55 61 64 66 66 68 69 70 71 71 71

GFSCGP_850_rhum_135.txt.gz
RH
43 58 64 52 47 39 38 46 55 46 36 29 36 28 28 22 20 20 19 22 24 22 24 34 42 43 44 40 39 42 42 47 49 50 54 60 64 67 62 65 74 72 68 66
67 62 42 41 43 35 34 52 53 44 38 36 34 32 30 26 25 20 17 18 18 22 29 38 46 45 44 44 40 40 42 50 51 52 53 58 64 64 68 71 68 63 65 63
66 47 36 32 32 29 37 49 53 51 39 31 27 30 26 31 22 20 18 15 16 17 26 37 43 38 43 45 44 44 44 52 53 52 56 60 67 72 69 66 61 61 60 58
44 37 36 41 48 45 40 38 45 49 51 52 29 50 31 26 28 26 23 20 18 21 25 36 39 41 40 42 50 48 49 54 54 52 58 64 71 76 73 65 58 52 50 43
60 49 55 58 50 47 39 36 43 42 37 45 30 51 22 26 25 24 26 23 22 23 28 32 36 38 43 48 50 50 53 54 54 52 58 62 63 63 61 58 54 44 26 18
58 49 53 48 46 42 38 38 57 63 60 63 40 44 38 34 34 41 36 32 32 35 37 41 42 42 46 47 48 51 53 52 52 52 58 60 59 56 54 49 36 21 17 18
64 63 51 48 46 45 43 64 82 51 60 58 60 43 32 37 44 44 51 48 46 45 42 44 46 48 49 48 48 50 49 49 48 49 54 56 56 54 49 31 19 19 20 20
84 70 65 54 49 49 50 71 70 45 71 73 54 48 33 43 43 42 45 49 50 50 50 48 49 48 45 44 43 40 40 41 46 47 52 55 54 50 42 24 19 20 22 24
84 86 56 55 50 46 40 71 48 60 57 72 67 49 45 47 48 45 49 48 50 49 46 41 39 35 33 33 35 38 41 40 43 46 50 53 54 51 42 25 20 21 24 26
56 83 56 55 52 47 46 46 48 76 56 54 73 45 71 54 49 55 50 42 39 37 36 35 35 35 35 36 39 40 40 42 44 48 53 55 56 53 40 29 23 23 26 29
44 64 69 54 59 54 50 56 53 60 75 77 68 63 43 56 57 50 42 37 35 34 31 32 33 31 33 39 37 38 42 46 44 46 50 56 54 52 42 32 26 25 28 31
46 63 86 62 55 52 55 53 45 63 54 59 61 52 45 52 46 34 31 26 26 25 24 25 25 24 25 31 37 45 46 44 43 48 54 54 55 57 53 49 42 31 29 31
58 65 84 67 58 59 53 50 48 52 65 57 56 46 47 47 42 31 28 26 24 23 25 27 27 27 30 31 36 40 48 46 46 51 52 50 49 52 50 52 56 56 43 34
58 60 62 53 48 61 65 60 54 54 79 55 59 39 51 51 34 28 24 24 25 25 27 29 29 30 33 36 36 35 37 42 45 45 46 42 41 43 48 54 61 69 70 61
54 62 58 47 48 50 54 58 61 60 53 50 46 37 44 44 35 26 27 27 26 28 31 32 33 32 35 36 38 42 42 40 40 42 46 45 48 53 59 64 68 73 79 80
51 64 54 61 44 43 46 47 61 62 57 57 55 52 40 28 27 28 28 28 30 33 35 35 33 35 42 42 40 38 40 41 43 44 45 44 45 49 57 62 67 73 78 82
52 62 72 52 40 42 33 49 50 62 60 55 57 49 35 35 30 32 32 35 38 38 34 34 41 43 44 43 43 45 45 44 42 40 38 38 40 44 52 61 70 76 81 85
54 61 75 82 52 32 18 32 38 48 55 47 44 40 35 32 36 39 39 34 28 30 41 48 47 43 42 45 46 46 45 44 42 40 40 40 39 39 41 47 54 64 80 87
59 60 73 70 70 37 31 29 41 46 45 34 38 39 36 35 36 40 40 33 39 50 50 48 46 47 47 47 42 36 32 31 30 30 32 34 36 36 37 37 43 51 63 76
59 63 60 67 45 41 29 33 32 27 31 37 35 38 38 37 46 48 36 32 40 49 48 47 45 41 36 33 33 37 37 36 35 35 36 39 41 41 40 41 45 48 55 59
73 68 71 72 69 55 34 34 31 22 22 37 36 37 39 43 40 38 39 42 46 48 43 41 41 42 42 40 39 38 39 39 39 39 39 41 42 43 48 50 54 56 58 62
64 80 77 72 68 56 37 37 31 36 42 40 39 39 36 34 36 37 40 43 43 42 42 42 40 39 38 37 36 36 40 41 40 39 41 41 42 46 48 50 52 54 57 61
57 58 67 60 59 42 37 37 40 36 37 39 35 35 35 36 42 44 45 44 42 40 37 36 34 31 31 31 32 33 34 36 38 39 40 44 45 46 50 51 51 51 52 56
42 43 51 42 42 45 40 41 37 34 32 30 30 32 33 38 42 41 39 35 30 26 24 21 19 17 13 13 15 22 23 23 24 27 32 39 43 47 50 54 55 55 52 54
40 44 49 52 41 45 44 39 39 33 30 33 36 38 39 39 37 31 27 26 25 25 24 21 17 13 11 11 9 11 19 24 25 25 23 23 28 39 46 51 57 59 54 57
44 47 49 45 39 40 40 44 42 31 34 37 40 41 38 30 28 28 29 27 20 13 11 11 10 10 9 7 6 7 12 17 20 24 24 26 27 30 37 42 49 55 64 62

GFSCGP_850_rhum_138.txt.gz
RH
48 60 66 53 43 46 47 46 49 45 36 32 36 29 29 26 25 25 26 28 30 29 22 30 35 35 34 36 36 35 37 38 47 52 51 52 58 60 58 58 60 62 58 56
66 68 48 44 44 40 48 54 56 46 38 33 36 35 31 27 25 22 21 22 23 24 23 30 33 36 40 46 45 44 40 39 48 52 51 53 61 61 58 58 57 56 58 59
65 48 39 42 42 34 42 49 57 51 41 31 32 35 30 32 25 22 20 18 17 18 20 23 31 35 43 43 46 46 46 42 51 53 49 55 61 59 57 57 55 55 56 54
46 38 37 44 45 44 44 40 47 51 45 58 29 52 29 28 31 30 24 20 18 17 18 19 29 37 39 42 47 45 48 47 52 54 49 54 58 58 60 58 55 51 47 40
54 51 53 50 49 46 43 46 45 42 45 41 34 51 23 30 24 25 27 24 22 25 24 22 30 37 42 49 46 49 50 52 53 54 49 52 56 59 60 58 54 50 35 18
59 53 53 48 48 43 42 50 52 53 50 60 36 36 22 33 28 41 45 29 28 32 33 33 36 40 45 50 46 49 51 52 51 49 48 52 55 58 56 54 47 32 19 18
66 62 59 50 43 40 49 53 74 54 62 58 68 42 26 37 44 41 55 48 44 44 45 44 43 42 42 45 49 49 48 45 45 44 44 50 54 56 54 52 40 20 18 18
82 72 66 60 48 45 55 52 68 40 59 64 56 55 29 44 48 49 49 49 48 47 46 46 46 46 45 44 42 42 40 39 42 41 44 48 55 55 52 47 36 21 20 22
77 78 58 55 53 46 44 68 53 62 68 69 70 47 48 48 49 50 50 49 48 48 44 39 36 34 36 36 35 37 37 38 40 43 43 45 49 53 54 53 41 26 21 22
56 81 58 53 50 44 40 46 56 77 57 43 75 53 67 60 56 58 54 48 43 38 37 39 39 36 32 33 37 38 41 42 46 48 45 43 47 52 53 53 41 32 26 24
52 59 68 50 59 52 54 54 58 62 71 74 72 61 57 61 57 63 46 39 38 38 34 28 26 25 24 24 28 37 44 48 44 45 48 50 49 52 53 51 46 44 38 29
53 69 84 59 57 55 58 50 50 54 46 66 60 54 44 60 53 43 39 29 28 25 26 27 27 26 26 28 31 34 36 47 49 52 54 54 57 58 58 58 57 60 61 59
56 66 80 56 45 51 56 52 50 59 65 57 49 36 46 53 47 34 30 28 25 25 28 29 28 27 29 32 34 34 37 39 44 51 52 51 52 55 54 53 54 59 65 68
56 67 52 52 42 52 56 60 54 54 78 58 63 44 55 59 42 33 29 26 27 27 29 31 30 30 30 34 37 39 42 44 42 40 39 38 41 48 50 52 56 62 65 70
54 63 59 49 49 53 55 57 63 58 46 49 39 42 50 60 45 31 28 29 29 30 32 32 33 32 31 36 37 37 36 37 38 40 41 42 42 43 43 43 45 51 63 71
55 63 50 60 44 43 45 51 64 63 55 55 57 54 43 42 31 31 31 30 32 34 35 34 32 35 39 43 41 38 37 38 40 41 41 40 38 37 37 38 40 45 51 58
56 63 69 46 48 42 31 44 59 67 62 55 63 52 40 37 34 32 34 36 38 35 31 32 39 43 44 44 44 43 42 42 41 39 37 36 36 36 37 38 39 40 45 53
60 67 76 82 43 27 20 35 39 58 61 58 48 48 40 35 37 39 38 34 33 35 38 42 44 44 45 45 42 36 32 31 31 32 33 34 33 33 34 34 34 35 36 39
60 64 77 68 58 34 35 34 45 44 37 57 49 44 38 39 41 44 40 38 36 40 46 48 48 43 35 32 34 36 36 36 36 35 36 38 38 36 37 37 38 42 43 44
63 66 54 72 38 27 27 32 34 25 32 38 39 43 44 41 45 46 41 36 41 46 45 39 35 37 40 40 38 37 37 36 36 36 35 37 40 41 42 43 45 46 49 49
66 68 70 73 69 53 39 34 30 22 18 38 35 36 40 44 36 36 34 39 43 42 37 38 40 40 38 37 34 33 32 33 33 34 35 37 39 42 45 45 45 48 48 50
60 76 78 73 65 39 37 37 29 29 40 39 37 37 35 31 30 34 39 40 41 42 42 39 36 35 29 22 17 16 17 16 17 18 20 23 30 37 43 49 49 50 54 53
57 51 58 54 47 38 36 32 32 35 38 38 32 31 29 30 36 40 41 42 41 38 35 30 22 17 17 15 11 9 10 11 11 11 12 17 22 23 25 34 42 49 52 57
44 48 54 47 41 46 38 36 35 35 34 33 32 29 30 31 37 41 41 37 30 24 23 21 16 13 16 13 10 8 9 11 11 13 13 13 15 14 18 26 30 36 44 51
40 48 49 54 45 46 42 40 37 35 33 29 29 31 34 38 41 38 29 26 26 22 14 13 14 15 14 10 8 7 9 14 15 16 16 16 17 20 27 30 34 36 34 44
47 49 46 43 35 40 35 37 40 35 31 32 35 40 42 41 33 28 29 24 15 14 14 14 12 10 9 9 9 8 10 13 16 19 21 22 23 26 40 52 46 42 45 48

GFSCGP_850_rhum_141.txt.gz
RH
75 60 69 58 48 51 52 45 48 44 35 33 32 28 34 29 31 31 30 30 33 34 33 38 41 42 40 37 38 38 37 36 36 40 47 48 50 55 56 59 62 60 56 58
90 70 51 48 47 48 46 52 55 46 38 33 39 32 27 29 28 26 26 27 26 28 30 34 36 37 37 43 44 40 44 43 39 46 50 48 49 54 57 61 58 56 57 57
98 49 47 44 43 46 48 48 58 51 40 33 33 36 31 30 26 22 22 21 22 22 23 26 28 27 35 40 38 45 46 47 44 51 51 47 51 56 60 63 60 54 49 46
78 42 40 45 47 44 45 43 48 53 50 61 34 51 31 33 34 32 24 22 19 18 18 18 22 24 28 32 42 46 48 50 49 52 52 48 51 56 60 64 58 52 45 36
70 51 46 47 47 42 42 46 48 40 46 44 36 55 31 30 29 30 28 25 22 20 19 18 18 20 27 38 45 53 51 52 53 52 51 46 49 55 58 56 52 46 39 26
66 55 54 50 48 42 51 42 44 49 54 59 36 42 27 34 28 40 43 28 25 24 27 26 26 30 37 46 51 52 51 51 50 48 47 44 49 54 53 50 48 46 33 20
64 59 59 53 46 42 42 53 75 65 67 66 65 40 31 32 46 42 49 44 39 41 41 42 41 40 41 44 48 49 48 44 47 44 45 45 45 49 48 48 47 43 26 18
81 75 64 62 52 51 51 44 70 52 59 63 57 51 30 42 54 52 50 50 50 47 44 44 45 45 44 42 41 40 39 39 45 45 47 44 42 44 48 50 47 41 29 21
75 76 59 56 56 46 46 66 49 66 68 71 71 45 47 51 51 54 54 52 49 48 45 42 38 37 37 38 38 41 44 44 47 51 51 48 47 48 49 52 52 48 42 30
57 77 60 52 48 45 41 52 62 79 60 36 71 60 64 64 61 57 58 51 47 41 39 39 37 32 27 26 28 38 41 43 48 50 51 50 51 54 56 60 56 56 52 43
53 59 67 48 58 51 51 55 63 63 68 70 64 52 55 64 62 68 56 42 38 40 39 30 26 26 26 28 29 31 37 44 50 52 56 56 55 58 57 54 54 57 60 56
53 64 75 54 59 57 58 46 54 54 44 70 59 51 44 57 56 55 43 40 34 31 27 28 28 28 29 30 31 30 34 38 46 50 50 47 49 55 55 53 54 59 63 66
54 64 73 50 44 50 58 57 51 59 63 61 57 34 49 56 55 46 38 30 28 27 29 30 31 30 29 27 30 34 36 36 35 36 38 38 40 41 43 45 48 51 54 57
53 68 48 50 40 51 56 59 57 54 78 58 56 41 54 60 54 40 33 28 27 28 31 32 33 32 31 30 32 36 37 37 37 37 37 37 37 38 38 39 40 42 45 47
53 67 60 51 50 57 54 53 64 57 45 45 34 48 52 62 61 37 30 29 30 30 33 34 33 32 31 32 37 39 40 40 40 40 40 39 39 38 37 37 37 37 38 41
57 64 48 54 44 44 44 51 66 66 54 53 51 52 42 43 45 34 29 32 32 33 35 35 34 35 40 40 39 40 40 41 40 37 34 31 30 31 32 33 34 35 36 38
57 62 62 46 56 41 34 37 59 69 64 57 62 50 46 48 40 34 34 33 33 36 35 35 38 38 37 39 41 38 32 30 30 32 34 35 36 36 36 36 36 36 34 33
64 63 73 76 35 38 27 36 40 62 61 62 49 45 44 41 37 33 33 32 35 36 36 33 36 41 44 38 33 36 38 37 36 36 35 36 36 36 35 36 38 41 41 42
59 65 76 63 49 30 32 39 45 45 28 56 58 49 41 40 42 43 38 37 35 31 30 40 43 37 35 40 40 40 38 37 37 35 34 34 34 34 35 37 39 42 44 42
64 62 49 71 32 18 18 31 33 30 34 43 48 49 50 45 54 49 36 35 34 32 42 44 39 42 43 41 36 31 24 17 14 14 15 18 21 25 29 33 37 41 47 49
69 71 67 71 61 46 31 34 33 21 16 43 42 40 46 48 38 31 36 36 37 48 45 42 43 43 38 29 19 16 14 12 10 8 7 7 9 11 15 21 22 25 32 41
59 72 78 74 63 34 37 38 33 27 40 38 39 36 37 35 34 34 38 44 46 44 46 44 40 30 23 19 13 12 11 9 7 6 6 6 6 7 10 13 13 16 22 26
50 44 51 52 45 30 36 31 30 32 35 39 36 37 36 34 33 36 41 44 45 44 39 31 22 18 14 14 12 10 9 8 8 7 6 6 6 6 8 11 13 19 27 31
53 52 56 53 42 48 37 33 33 32 34 35 34 33 32 28 33 39 43 44 40 30 25 19 14 16 17 14 10 10 10 10 9 8 8 9 11 12 12 13 16 23 35 42
42 54 56 58 47 43 38 40 37 35 36 35 33 30 29 31 38 42 41 33 28 23 15 15 16 17 16 14 14 14 12 11 10 10 13 16 18 20 22 22 26 29 33 52
49 50 48 43 33 37 34 32 40 38 36 33 29 31 37 40 42 37 29 26 17 15 16 16 14 15 17 18 19 16 13 11 12 16 23 30 37 39 43 47 46 47 45 49

GFSCGP_850_rhum_144.txt.gz
RH
96 100 79 56 57 52 51 46 52 44 38 35 33 32 35 35 39 39 37 36 35 33 33 38 42 43 42 38 36 38 40 40 41 34 38 46 44 46 50 53 56 56 53 54
95 89 52 48 51 46 44 47 56 44 41 36 36 32 31 33 34 34 33 32 31 31 34 39 39 39 37 38 41 41 44 42 46 37 44 48 44 46 50 53 55 53 52 51
98 87 60 46 50 47 47 46 56 51 38 37 35 40 33 31 28 26 27 26 27 27 28 30 32 30 33 34 38 43 46 46 46 42 49 50 43 45 51 56 56 51 45 42
94 62 50 48 46 46 45 43 48 52 50 61 38 52 29 36 36 33 24 23 22 21 22 24 27 26 24 28 40 43 48 46 48 47 51 47 43 45 52 54 53 51 49 43
90 70 47 50 46 42 46 48 48 41 44 48 38 55 31 31 32 35 30 25 21 20 19 18 18 18 23 30 38 48 48 47 50 50 48 45 39 44 50 52 48 50 46 37
79 58 60 53 51 46 53 40 47 53 52 58 44 43 32 38 30 34 37 28 25 23 22 24 22 22 22 28 40 47 49 49 50 48 45 39 37 42 45 49 50 52 46 35
85 60 59 51 51 44 40 55 79 67 69 66 63 41 32 27 46 43 42 39 30 28 29 31 34 33 33 37 44 49 49 46 48 44 41 43 42 44 45 50 52 50 48 41
95 88 62 62 51 55 47 45 74 59 68 66 59 49 31 35 57 56 48 49 48 45 44 42 42 42 43 44 44 44 41 40 45 45 46 48 48 48 47 50 55 55 51 45
72 77 60 58 56 45 45 66 46 69 67 73 73 49 41 51 56 62 61 57 53 50 48 47 45 40 37 36 39 39 39 39 43 47 48 50 56 55 53 54 54 54 55 52
57 77 61 52 50 48 44 54 61 78 56 43 63 56 61 66 64 62 63 55 54 51 44 42 40 36 29 25 24 26 30 37 42 46 48 47 47 51 55 56 54 60 60 62
55 58 63 50 57 51 50 54 66 63 67 61 48 42 55 58 64 66 61 52 47 44 42 37 27 26 25 25 25 26 27 30 36 46 51 51 53 58 59 58 60 62 63 64
56 64 75 55 61 59 60 44 49 54 42 72 54 47 52 56 61 55 55 42 42 43 34 28 28 27 27 28 26 26 29 31 34 41 46 49 50 49 48 50 52 53 51 55
52 61 71 51 45 52 58 59 54 57 63 63 60 35 54 62 62 57 45 40 35 30 29 29 29 29 28 28 26 26 33 36 37 37 37 37 38 39 39 40 41 42 43 44
54 65 47 59 43 53 57 59 58 53 75 52 49 33 51 60 61 50 41 33 29 30 30 31 32 31 30 30 28 30 35 36 36 36 38 39 40 39 39 38 38 38 38 38
55 63 61 54 53 58 51 53 67 59 47 43 30 48 41 62 64 44 34 31 29 30 32 32 32 32 31 30 33 38 41 41 41 41 40 37 33 32 31 32 32 32 32 32
54 69 51 62 45 44 46 55 64 66 55 51 49 53 45 41 48 42 34 30 30 30 32 34 33 32 31 37 42 44 44 39 33 32 34 37 38 37 35 34 34 34 35 37
57 65 67 55 55 44 40 42 62 68 64 56 58 45 53 57 54 40 33 30 29 30 32 33 33 36 42 44 43 34 34 38 39 39 37 34 32 30 29 29 30 32 34 37
58 58 71 69 35 46 30 35 39 60 60 62 50 48 50 43 47 40 30 28 30 31 33 35 39 44 46 38 37 42 42 40 36 31 24 18 13 11 10 12 17 23 28 33
59 60 71 58 45 31 24 40 46 47 27 57 55 51 45 45 41 39 32 32 31 33 36 40 46 45 38 43 44 40 33 21 15 13 10 8 7 6 6 6 7 9 12 14
63 60 46 66 28 16 14 30 34 29 28 28 57 56 56 44 57 50 34 33 35 37 40 47 44 41 45 43 34 19 16 13 10 10 8 7 6 6 6 6 7 7 9 10
73 74 64 68 56 40 28 35 33 19 15 37 53 49 49 48 41 34 34 39 40 39 44 43 44 46 40 28 19 14 13 11 10 9 11 11 10 8 8 7 8 10 10 10
64 71 76 73 56 31 36 40 32 26 34 40 45 44 42 39 36 34 38 38 36 42 46 48 46 36 25 18 15 13 11 11 12 15 16 15 12 8 8 9 9 11 13 15
50 42 48 53 44 28 36 33 30 31 35 36 40 38 37 36 35 34 34 40 45 48 48 40 30 21 16 16 13 12 13 15 18 18 17 13 9 8 10 11 13 18 24 28
57 51 52 54 40 48 31 32 33 33 32 35 36 38 38 36 34 33 42 47 48 42 33 24 16 16 16 14 14 16 17 18 18 15 12 10 11 13 16 21 28 36 44 50
46 58 57 61 48 42 35 36 38 36 34 36 36 35 33 31 33 40 46 46 37 30 20 16 16 16 17 19 21 20 17 15 13 12 12 14 18 24 29 32 34 35 35 43
52 52 53 46 34 36 34 33 34 41 37 38 35 32 32 35 38 45 42 34 28 18 17 17 17 20 23 24 24 18 15 13 14 15 18 23 30 33 32 29 26 25 26 29

GFSCGP_850_rhum_147.txt.gz
RH
97 96 100 81 61 53 51 53 55 46 39 38 39 43 43 45 47 48 46 44 43 38 39 39 40 42 42 37 34 36 35 37 37 37 36 44 46 38 41 45 49 52 50 50
95 100 91 68 54 44 47 53 56 43 40 39 35 35 35 38 41 42 40 38 36 36 36 36 38 41 37 37 38 38 38 40 41 42 40 48 44 37 44 48 51 52 49 47
99 96 85 62 56 44 45 52 57 51 38 40 37 39 36 33 32 33 35 34 33 32 32 33 36 34 34 33 35 40 40 41 44 45 47 49 39 36 44 50 53 49 46 41
97 80 74 52 52 44 42 40 48 50 46 57 38 53 32 36 37 33 28 29 27 27 27 28 31 30 28 28 37 40 42 45 46 48 53 45 37 38 42 49 50 46 45 42
93 93 73 52 53 41 46 46 45 42 46 47 39 53 26 34 36 36 32 26 23 23 22 22 23 23 26 30 35 40 46 48 48 53 51 38 38 37 38 44 47 47 45 42
89 75 66 56 52 49 47 40 47 53 49 58 53 40 25 37 33 30 30 26 24 22 21 20 19 18 19 24 32 39 45 50 53 54 44 38 38 38 36 41 46 49 48 45
92 67 59 54 52 46 40 56 78 70 70 60 60 40 28 22 46 44 38 35 28 27 24 27 27 27 26 24 28 39 46 52 55 47 40 42 42 43 42 43 45 48 50 48
95 90 64 63 52 52 47 48 74 62 62 58 60 49 27 32 62 56 45 41 38 36 37 40 41 39 37 39 43 45 49 48 45 41 43 46 46 48 48 48 46 47 50 52
74 82 60 59 56 45 52 63 45 69 67 63 66 48 38 49 63 67 62 57 54 50 48 46 46 44 42 40 36 36 37 39 39 40 41 43 46 51 51 49 48 50 52 53
53 79 62 53 49 49 43 50 57 71 60 43 54 55 56 64 68 69 71 62 57 55 52 47 40 37 34 30 26 25 25 26 33 39 44 47 46 47 47 47 49 52 53 57
54 58 63 50 59 52 52 51 62 60 62 52 47 39 49 53 65 69 65 56 55 51 45 41 34 26 24 24 24 23 23 24 28 34 41 49 52 52 52 49 51 54 54 59
58 61 70 58 63 61 59 45 45 50 43 68 47 34 50 61 59 57 58 55 52 47 42 31 27 26 26 25 23 22 24 29 32 34 36 40 43 44 44 42 42 43 44 46
51 58 72 51 48 52 57 60 53 54 61 59 48 29 56 64 64 55 57 49 48 45 32 29 28 27 26 26 27 28 27 31 35 37 38 39 40 40 39 38 37 37 37 37
50 58 52 63 47 54 56 61 55 50 59 44 47 30 46 61 66 63 52 42 42 35 30 29 29 29 29 30 30 28 31 36 39 39 39 39 38 35 31 30 31 31 32 32
56 59 60 53 56 57 50 53 66 55 44 36 27 40 33 59 63 55 42 36 32 32 31 31 30 31 32 32 31 35 39 40 41 39 34 32 34 34 34 33 32 33 34 34
55 65 54 66 46 45 48 54 63 65 55 51 47 48 42 38 49 50 40 33 31 30 30 30 32 33 34 33 37 41 42 36 33 37 37 34 32 28 24 20 19 19 21 24
56 66 71 57 53 44 41 44 63 64 63 53 52 39 50 57 59 46 38 32 29 27 28 31 34 35 36 39 43 37 36 39 39 36 29 18 12 10 8 6 6 6 5 6
56 59 69 65 37 47 31 35 41 57 58 60 52 43 48 41 46 44 35 31 29 29 31 34 36 37 39 42 35 40 41 37 28 17 13 10 8 7 7 7 7 6 6 6
59 59 68 57 46 32 25 36 47 40 25 52 53 53 47 44 44 44 40 32 30 31 34 36 37 40 42 38 43 41 31 18 15 11 10 10 12 14 14 13 10 7 6 6
61 55 47 60 30 23 12 29 35 33 25 27 50 62 55 48 56 52 38 33 33 35 35 36 40 42 41 45 39 23 16 14 13 12 13 15 18 18 16 12 8 7 8 9
74 74 64 63 49 38 24 34 34 19 15 32 48 57 52 52 45 39 36 36 36 36 37 42 44 44 46 37 23 15 15 13 13 15 18 21 19 15 10 8 9 11 13 15
69 72 72 67 51 33 33 41 29 24 30 38 47 52 48 39 36 37 40 38 39 39 44 46 46 46 36 23 16 15 14 15 17 22 22 18 13 10 10 12 14 17 19 21
52 42 45 52 42 24 34 33 30 30 32 35 42 45 44 38 39 40 40 40 40 44 47 48 44 32 21 16 15 14 17 21 23 20 16 12 10 11 14 16 18 20 20 22
59 50 48 50 37 45 30 30 34 33 32 32 34 40 41 38 38 36 36 39 45 48 47 37 26 17 16 15 17 20 21 20 17 15 12 12 13 14 17 20 19 18 17 17
46 57 53 57 48 42 38 35 35 35 37 35 36 38 38 38 36 34 39 45 47 42 33 20 17 16 18 21 22 20 18 16 12 12 12 13 15 18 21 21 20 22 24 27
56 55 54 45 36 33 33 34 34 38 41 38 38 36 35 33 31 37 44 46 39 31 20 18 17 20 23 24 22 16 13 12 13 13 13 15 18 24 27 27 26 27 28 24

GFSCGP_850_rhum_150.txt.gz
RH
92 97 100 95 89 45 36 36 35 34 34 33 39 36 40 43 44 44 46 49 52 54 56 45 48 43 43 35 34 32 32 33 34 35 35 38 44 39 41 47 46 49 48 48
96 98 82 90 83 58 37 37 35 38 34 30 37 39 37 40 39 40 41 43 45 48 52 45 46 44 42 38 37 34 36 37 36 38 40 42 45 39 44 48 47 47 46 45
93 93 82 73 90 56 37 34 40 46 36 30 33 39 39 35 35 38 39 38 38 42 45 41 41 40 40 38 36 36 39 38 38 42 44 45 45 40 42 47 47 46 47 42
98 91 91 83 95 54 43 31 35 38 37 45 31 53 36 31 34 31 34 36 35 40 39 37 36 38 36 35 37 38 40 41 41 45 46 50 43 44 40 42 44 47 47 42
98 98 96 97 68 38 38 34 35 34 32 36 32 40 25 29 31 30 28 30 32 34 31 30 32 33 34 35 36 38 40 42 47 48 51 48 41 41 38 36 41 47 46 43
83 91 81 59 46 41 36 34 38 33 33 56 38 30 26 28 26 25 25 26 28 29 25 24 25 27 28 31 34 35 40 44 49 52 52 46 44 44 41 38 38 42 46 46
95 74 52 52 40 35 33 37 78 73 84 54 43 30 18 19 27 25 25 26 30 29 23 21 20 19 20 21 24 31 36 45 51 54 49 44 47 46 43 44 43 41 42 45
98 89 56 54 46 38 34 36 54 73 56 49 44 32 21 22 48 49 40 37 39 37 28 28 29 28 26 24 24 27 37 49 52 47 43 45 49 46 44 45 46 44 44 48
85 80 52 52 49 39 36 42 36 41 44 34 35 30 29 42 52 48 49 49 51 56 50 41 42 40 38 38 38 45 48 46 41 41 42 45 45 42 44 46 47 49 52 52
46 64 54 49 46 42 38 36 43 48 53 30 36 34 26 43 49 49 54 51 60 66 59 50 47 44 42 40 39 37 34 32 33 37 43 45 46 48 48 51 53 52 52 53
42 46 56 47 51 41 42 45 45 40 42 24 22 18 30 35 44 51 48 55 61 65 60 50 43 37 31 26 24 23 24 25 28 33 36 42 48 53 55 52 45 42 42 44
45 45 56 50 56 53 47 37 30 31 42 41 31 22 34 41 38 43 50 56 61 62 49 39 31 28 27 26 25 25 24 26 30 31 33 36 39 40 39 38 37 37 37 38
44 46 61 50 44 48 46 46 38 35 38 38 33 22 41 46 43 49 50 56 58 54 40 32 30 29 27 26 27 27 28 27 29 33 36 36 36 37 37 35 32 30 31 32
49 41 41 46 40 40 43 48 40 35 36 28 26 22 33 45 44 46 49 48 48 45 36 35 30 29 29 29 29 30 28 29 32 35 37 38 36 32 32 33 32 29 26 24
50 52 54 46 54 48 43 42 46 40 28 28 24 23 21 36 38 42 46 43 46 43 40 32 31 32 31 31 31 30 31 35 37 37 33 33 35 32 28 20 13 10 9 8
46 58 50 57 44 42 44 42 43 43 42 35 33 29 20 28 38 45 43 40 40 40 34 31 33 33 33 32 32 33 37 37 32 35 37 33 25 12 9 7 6 5 6 6
48 54 57 50 43 39 38 33 40 41 40 28 32 18 28 34 41 42 40 38 34 35 31 32 32 33 33 33 34 39 34 35 38 36 26 13 10 9 8 10 12 12 10 8
45 46 52 52 32 48 26 29 32 36 38 36 36 33 29 31 41 43 41 36 33 32 31 30 32 33 34 35 38 34 38 40 34 17 13 10 10 13 16 18 16 13 9 7
45 40 47 43 34 25 21 27 34 31 21 29 36 32 36 43 41 39 43 36 33 31 28 30 33 34 35 39 36 41 41 29 17 12 11 13 16 19 20 18 12 8 7 6
46 36 35 38 34 26 15 26 34 30 17 22 33 33 38 43 34 23 36 40 34 30 30 33 34 36 40 38 42 39 24 15 14 12 14 18 21 21 18 12 9 8 9 9
54 51 50 40 38 27 19 31 35 20 17 30 42 49 46 41 34 40 40 39 33 32 35 36 38 41 40 44 38 23 15 14 13 15 19 22 21 16 12 9 9 10 11 11
47 48 47 46 44 43 29 37 24 22 33 38 48 54 52 45 39 42 42 39 38 37 38 40 42 43 46 38 24 16 15 14 17 22 23 20 16 12 10 10 11 13 15 16
39 33 27 35 28 26 35 34 29 29 31 35 41 47 45 39 42 44 42 41 41 42 44 46 47 46 37 23 16 15 16 20 23 23 20 16 11 9 10 13 17 21 20 20
44 41 32 34 29 33 30 29 32 32 33 33 34 42 42 37 39 42 44 44 44 46 48 47 44 32 20 16 16 20 23 23 21 18 13 9 8 10 13 18 21 25 25 27
38 45 37 35 31 35 36 32 32 31 34 36 35 39 42 39 39 37 38 41 45 47 46 36 24 18 17 19 23 23 21 18 13 9 8 9 12 14 15 18 21 24 24 29
44 38 37 29 31 28 34 34 33 36 38 39 37 39 42 41 39 37 40 45 47 43 32 20 18 19 22 24 22 17 12 9 9 10 12 14 15 16 17 18 19 19 18 19

GFSCGP_850_rhum_153.txt.gz
RH
87 97 97 75 70 66 90 86 45 26 26 30 32 32 36 40 38 38 41 48 51 56 58 59 66 56 43 37 28 27 31 26 31 32 39 41 66 43 36 36 39 43 45 44
94 96 67 77 90 97 97 89 36 24 29 25 24 35 34 36 36 36 38 43 47 53 56 63 70 52 42 37 33 32 33 30 37 35 38 42 45 42 36 34 40 44 45 40
92 92 75 90 98 100 87 51 33 43 34 23 23 38 41 36 35 35 36 40 44 48 51 60 67 52 44 40 36 34 34 35 39 36 42 44 44 39 31 33 37 43 44 39
97 90 89 84 94 95 55 31 28 34 40 39 27 49 42 38 38 35 35 36 38 42 44 50 59 54 40 39 36 38 36 38 42 40 44 46 46 44 32 33 36 42 43 39
98 93 93 86 77 69 60 30 39 30 31 24 32 46 36 34 39 34 33 34 33 37 40 46 53 40 38 39 36 35 38 41 43 44 46 46 43 35 32 33 35 39 40 41
89 92 91 76 74 52 35 35 38 31 28 53 28 32 34 36 32 31 28 30 31 33 37 40 47 44 42 38 36 38 39 42 45 46 47 48 43 36 36 39 42 44 42 41
96 91 62 58 50 36 35 45 77 74 89 57 30 32 21 24 23 25 26 26 28 30 31 35 35 34 34 32 34 37 41 44 44 47 48 49 40 41 42 46 52 54 51 50
94 89 64 46 43 39 35 48 68 77 57 52 36 39 22 23 28 32 23 24 26 29 28 33 28 23 25 27 30 34 37 44 42 47 51 42 41 46 43 48 54 54 49 48
67 78 45 43 40 36 36 51 39 47 38 40 38 26 29 33 42 34 33 30 33 33 40 52 38 32 24 23 24 25 32 38 48 50 41 42 44 44 45 49 49 47 46 48
46 69 47 42 40 35 35 28 56 56 60 42 37 29 35 37 41 37 40 37 40 46 56 61 54 49 50 40 38 40 47 49 43 40 41 44 50 49 52 56 55 50 45 44
38 41 50 42 46 37 34 35 38 36 36 33 32 29 26 30 32 40 38 41 48 56 61 65 63 49 45 44 41 38 34 30 29 30 36 41 46 51 59 53 43 39 39 39
38 41 54 48 47 45 43 34 30 32 29 28 24 28 29 30 29 35 38 46 52 57 60 54 48 41 33 30 27 27 26 26 27 30 32 34 39 40 39 38 36 36 34 31
45 42 58 49 39 42 43 37 34 30 31 31 33 28 35 36 32 34 41 46 53 56 48 43 41 39 39 33 30 26 26 26 27 29 33 37 38 37 36 34 30 31 29 26
51 38 42 55 44 39 42 40 34 33 40 26 22 20 37 39 35 37 40 47 50 46 40 38 37 38 41 37 29 29 28 28 28 32 37 38 37 33 32 31 23 16 12 8
45 54 50 38 44 44 44 36 37 36 28 29 24 20 21 34 33 38 41 43 43 39 37 36 36 38 41 30 29 30 29 31 34 37 38 33 34 32 22 12 8 6 6 8
44 60 46 56 41 40 46 33 33 36 33 32 26 24 16 26 31 36 38 39 39 37 36 37 37 40 39 30 31 31 32 35 37 34 35 35 27 12 10 8 9 13 14 15
46 52 53 47 40 39 42 30 30 31 33 26 27 21 20 28 31 34 35 37 38 37 36 36 40 38 35 32 32 34 36 35 35 38 34 18 11 10 10 15 18 20 17 11
44 44 57 56 34 49 25 26 29 27 26 27 23 26 24 27 29 35 36 36 34 35 35 38 40 41 34 33 35 36 35 36 38 32 16 12 11 14 18 21 21 15 11 9
39 37 41 47 34 25 21 24 29 30 22 24 29 25 26 35 34 34 38 35 32 31 35 38 41 37 35 34 36 36 38 40 31 17 13 12 15 19 23 20 15 13 9 7
42 37 38 35 37 30 17 24 27 26 20 20 24 24 25 34 31 22 38 39 33 34 38 40 41 36 35 37 37 39 42 30 17 14 13 16 20 23 19 16 13 9 8 8
53 48 48 41 38 27 22 26 30 23 23 28 33 38 37 36 35 43 42 41 40 43 42 36 34 36 42 39 41 41 28 16 14 14 16 22 23 20 17 13 8 7 8 10
41 47 47 40 43 49 25 32 23 24 33 35 42 49 42 41 46 48 51 51 52 44 38 38 38 41 40 42 41 28 17 15 15 18 23 24 21 16 10 7 7 9 11 14
35 31 26 32 29 20 26 29 28 32 31 38 42 49 47 50 54 57 59 58 48 41 40 41 42 42 44 40 27 17 15 16 21 24 22 18 12 8 7 9 10 12 12 15
30 32 29 28 20 24 24 27 33 32 36 33 32 45 46 48 54 56 56 52 46 43 44 45 46 46 39 26 17 16 20 23 24 22 15 9 7 8 10 13 14 16 18 22
34 37 29 27 22 25 29 31 29 33 36 33 33 39 45 45 49 48 49 49 47 45 45 47 44 33 22 17 19 23 24 23 17 10 8 11 13 15 17 20 22 26 27 30
37 32 34 26 26 25 34 38 35 39 37 39 37 40 45 46 42 43 44 44 44 47 45 36 24 18 18 22 24 23 17 11 10 12 14 16 19 20 22 24 26 26 26 29

GFSCGP_850_rhum_156.txt.gz
RH
85 90 89 83 76 71 68 70 72 62 51 74 64 38 39 42 43 45 47 55 58 60 58 58 57 56 53 42 29 22 22 24 22 26 31 34 33 40 34 30 35 37 39 35
92 94 67 63 65 74 77 87 88 66 58 70 51 39 35 44 44 43 46 55 58 59 58 59 62 57 50 37 27 25 26 28 30 29 36 35 42 42 34 31 33 36 37 33
98 80 88 76 91 99 96 96 83 78 65 64 36 41 40 44 40 39 43 51 56 58 59 61 65 58 46 35 28 28 30 32 31 31 36 38 45 41 32 29 29 35 35 35
99 90 93 96 100 97 100 79 87 95 60 68 32 65 66 50 48 42 42 46 53 58 59 63 61 53 42 35 35 33 35 34 34 33 35 39 44 39 32 29 27 31 33 35
97 96 94 99 92 92 94 57 70 72 48 47 37 63 54 49 52 46 45 44 49 52 55 58 56 48 39 38 36 38 37 36 35 36 36 40 46 39 33 34 35 35 34 36
88 88 90 86 63 74 71 54 76 70 57 71 43 43 61 55 49 46 41 38 42 46 48 50 49 45 43 42 42 41 38 38 37 39 39 43 49 39 36 38 41 41 41 39
91 94 68 77 73 66 69 66 98 99 88 85 44 45 42 42 39 37 40 36 35 40 42 45 48 50 48 42 41 41 40 39 38 38 42 47 51 42 39 47 45 45 48 48
98 97 73 55 61 54 51 57 87 75 86 88 51 58 36 46 36 31 33 34 33 36 39 42 44 43 44 41 41 40 39 40 39 42 43 51 48 43 45 44 43 45 42 45
99 80 48 42 40 41 43 78 49 69 71 86 67 39 33 45 42 34 32 30 32 33 34 37 38 38 40 37 35 34 37 43 41 43 48 50 46 45 43 42 42 44 45 48
51 82 47 40 40 38 41 43 70 84 96 76 74 45 76 54 50 40 47 40 32 30 33 36 40 36 32 30 28 30 33 38 44 50 49 48 47 42 41 47 50 48 45 43
46 54 59 45 53 58 46 50 49 56 63 92 63 52 34 48 49 51 49 39 36 44 49 57 59 53 40 39 37 36 41 47 50 43 42 42 44 42 47 51 45 41 42 41
40 52 69 55 46 44 47 40 49 68 58 71 44 50 38 37 47 44 43 45 50 56 63 67 60 51 50 49 48 45 41 34 28 29 32 33 35 38 40 39 38 39 34 31
55 54 80 57 51 45 47 40 38 38 46 56 54 45 40 38 46 40 49 52 58 63 64 56 49 46 42 36 30 28 28 25 26 27 29 33 36 37 38 38 33 33 27 16
57 55 51 80 82 54 46 43 37 39 73 43 32 38 49 41 46 49 49 54 60 56 49 45 43 41 37 32 29 28 25 26 27 29 34 36 37 38 34 35 28 14 8 6
52 68 58 50 46 46 48 41 40 40 44 41 36 33 35 46 46 47 48 53 53 44 41 39 39 39 36 32 30 26 27 28 30 34 37 38 35 36 32 16 9 8 12 15
51 70 55 61 44 44 47 41 36 38 40 38 33 30 35 34 37 43 46 49 46 40 38 36 37 36 33 29 27 28 30 31 35 38 36 36 35 24 11 9 13 17 21 19
52 61 73 69 40 45 53 41 38 37 36 33 31 30 29 39 42 41 42 43 42 38 36 36 36 36 32 30 29 31 31 36 37 35 38 34 16 11 11 16 21 23 20 17
51 54 69 83 43 67 34 30 33 35 32 35 32 29 34 34 37 36 38 39 40 37 36 37 37 36 34 33 33 32 36 35 37 39 33 15 11 13 17 22 24 21 19 16
46 50 61 70 56 39 28 24 31 34 29 29 32 28 32 32 31 31 36 37 38 38 36 36 36 36 35 33 33 36 36 37 40 33 17 12 13 17 22 24 22 20 18 14
46 47 57 52 49 43 22 24 26 26 29 23 26 27 26 36 44 44 38 36 34 35 35 37 40 39 36 35 36 37 39 42 33 18 14 14 17 23 24 23 20 15 9 6
66 60 66 65 59 46 27 28 29 26 31 32 35 41 40 44 46 41 41 35 32 34 37 40 42 39 37 38 39 40 42 32 20 15 14 18 24 24 22 19 11 8 7 8
59 66 67 58 54 62 29 30 27 32 33 35 44 46 44 44 44 42 40 38 38 39 43 45 42 42 44 42 42 39 29 20 15 15 20 25 25 21 14 9 8 9 12 15
43 40 41 45 51 24 26 30 27 30 34 35 43 45 44 46 49 50 48 49 48 47 50 49 45 44 45 44 37 28 20 16 18 23 25 24 18 10 9 11 13 16 18 20
32 32 40 32 24 30 23 24 28 28 34 32 35 44 45 49 55 58 59 58 55 53 53 50 46 44 42 35 25 19 16 20 24 25 20 13 11 10 12 15 18 22 23 26
38 38 37 35 31 25 25 26 24 29 33 34 34 43 44 46 54 55 58 56 53 50 50 49 46 42 34 22 17 18 23 25 22 16 12 11 11 13 14 16 20 22 23 29
41 42 44 40 31 32 37 33 32 31 34 36 36 43 46 44 47 50 52 51 49 48 48 45 39 28 19 18 21 24 24 20 16 12 11 12 13 15 17 18 19 20 23 26

GFSCGP_850_rhum_159.txt.gz
RH
86 97 98 85 92 81 80 86 88 65 50 61 71 68 54 46 45 53 61 70 73 68 64 62 60 59 50 38 29 23 20 21 19 18 20 28 26 36 32 29 27 30 35 35
93 96 70 67 77 84 81 88 87 69 57 57 74 75 58 49 46 50 60 69 67 64 60 60 59 55 50 40 32 24 22 21 21 21 24 31 34 35 32 27 30 30 37 34
94 86 76 78 92 95 86 85 80 78 64 60 69 83 72 52 42 50 56 63 63 61 61 59 59 57 52 43 32 25 23 24 24 25 31 34 41 38 31 26 28 29 35 38
99 92 95 97 100 95 98 72 77 74 97 92 71 93 63 53 54 64 58 64 66 62 61 60 60 58 52 44 33 27 28 28 26 32 32 40 41 39 30 28 27 30 34 36
90 97 97 100 96 96 95 82 99 97 93 96 96 90 42 44 63 61 59 65 64 60 60 60 60 59 53 43 34 31 33 31 32 33 36 39 42 40 32 29 31 36 37 35
91 92 91 93 84 82 82 91 86 97 89 98 78 73 58 72 54 62 57 62 63 61 60 59 60 60 52 46 39 38 35 33 35 37 39 41 44 43 34 33 38 42 35 36
79 94 79 79 94 80 95 98 98 98 98 91 61 51 52 49 49 53 57 59 62 61 60 60 60 59 56 49 42 40 37 36 38 40 42 44 48 45 36 36 42 39 39 40
98 93 81 78 75 68 86 68 96 96 85 79 56 68 35 48 43 40 46 53 58 58 57 56 56 55 55 44 43 41 38 40 40 42 44 46 50 45 39 41 40 40 43 45
96 91 57 60 48 44 50 86 59 68 81 85 74 45 39 60 48 46 46 47 54 54 52 48 50 52 49 45 44 42 41 42 44 45 47 47 52 41 41 39 43 46 48 48
59 83 55 46 46 46 44 52 83 90 90 77 89 53 68 65 57 50 55 47 47 46 45 46 47 50 49 50 50 49 46 44 47 49 49 52 43 44 40 44 52 53 48 41
50 62 69 50 54 58 51 73 68 81 98 97 84 61 38 50 67 49 49 43 42 41 42 43 46 50 50 49 45 42 46 49 52 51 53 46 43 42 44 56 58 47 40 38
50 53 79 61 48 46 50 49 57 80 86 98 98 65 49 47 51 52 51 50 46 39 39 38 38 40 38 37 38 40 43 48 53 54 42 37 42 47 54 49 43 38 35 31
59 66 86 75 55 48 54 44 41 46 81 86 88 52 45 58 56 51 59 57 53 46 51 57 59 56 53 52 52 54 55 49 34 31 30 37 40 41 40 38 36 32 26 13
58 68 67 84 75 65 61 49 40 53 84 65 55 44 50 51 60 66 62 60 62 66 66 66 63 58 54 50 46 38 32 29 28 29 34 34 35 36 37 34 32 16 8 8
58 74 61 60 58 54 54 52 44 43 51 54 40 42 42 49 64 64 62 67 67 65 61 52 50 48 44 40 35 31 29 29 30 32 33 34 38 37 34 27 11 9 14 19
55 68 63 69 50 51 52 48 47 42 43 43 36 31 42 44 52 61 63 63 57 54 49 45 45 44 39 33 30 31 30 30 32 33 35 37 35 35 20 10 11 18 22 21
56 67 78 80 56 46 54 48 45 40 39 35 34 31 38 48 54 60 61 57 51 45 42 42 41 37 34 31 29 30 31 32 34 36 35 36 33 15 10 14 20 24 22 22
61 60 77 84 56 67 37 30 37 37 34 36 32 30 36 43 43 47 50 52 47 42 39 38 38 36 33 32 34 33 33 34 35 36 38 31 14 11 15 20 24 24 23 22
56 57 67 68 69 48 32 24 32 37 34 29 35 32 35 32 34 39 44 45 44 39 37 36 35 35 34 34 34 34 35 36 38 40 31 16 12 15 20 24 25 23 20 16
50 53 63 67 55 52 26 26 26 29 32 27 29 31 39 36 43 41 42 42 42 39 36 37 38 38 37 37 36 36 36 39 40 33 18 14 15 20 25 25 22 17 12 9
74 68 72 71 72 55 31 28 29 26 30 35 40 44 40 49 44 41 38 39 39 38 37 38 40 39 39 38 38 38 39 40 33 19 14 16 21 25 24 21 15 11 10 11
69 77 78 72 69 66 29 28 26 30 35 40 46 46 45 44 43 38 36 36 38 38 39 41 42 42 42 40 40 40 40 31 20 15 17 23 25 23 17 12 11 12 15 15
45 54 56 60 57 36 26 29 29 30 32 38 43 45 44 45 44 42 42 41 41 41 43 44 42 43 44 43 43 38 28 19 16 20 24 24 19 13 12 11 12 11 13 16
34 36 42 33 24 32 23 28 26 30 30 33 40 42 44 46 49 48 48 48 47 47 46 46 45 44 43 40 33 24 18 18 22 24 21 16 13 11 11 12 14 15 17 20
37 37 39 41 35 30 28 26 26 30 32 32 40 43 43 46 53 52 54 53 52 50 50 49 45 43 39 31 22 18 21 24 23 18 15 12 11 11 12 14 17 18 21 28
44 41 42 41 33 33 35 30 27 28 30 33 36 44 46 45 48 52 53 52 50 49 48 46 43 37 28 20 19 23 24 20 16 14 11 11 12 14 16 19 20 21 26 30